GEFSCGP_prec_meanprecacc_282.txt.gz
Total_Precipitation_Accumulation
0.00 0.01 0.01 0.03 0.06 0.10 0.12 0.14 0.19 0.20 0.21 0.27 0.38 0.60 0.81 0.92 1.10 1.23 1.22 1.35 1.74 2.14 2.45 2.73 2.87 3.10 3.42 3.72 3.99 4.27 4.66 4.79 4.56 4.53 4.50 4.41 4.13 3.98 3.63 3.21 2.86 2.79 2.80 3.02
0.00 0.01 0.01 0.02 0.04 0.06 0.08 0.11 0.16 0.19 0.22 0.30 0.34 0.57 0.78 0.80 0.99 1.13 1.24 1.42 1.58 1.79 2.27 2.54 2.56 2.80 3.03 3.55 4.05 4.39 4.38 4.27 4.01 4.14 4.46 4.71 4.70 4.20 3.61 3.26 3.13 2.77 2.71 2.83
0.01 0.03 0.02 0.02 0.02 0.04 0.08 0.12 0.17 0.20 0.22 0.34 0.44 0.89 1.00 0.90 0.98 1.07 1.15 1.33 1.47 1.64 1.83 2.14 2.17 2.27 2.48 2.99 3.50 3.64 3.51 3.44 3.31 3.39 3.71 3.95 4.20 3.95 3.64 3.34 3.08 2.74 2.66 2.62
0.01 0.02 0.01 0.03 0.03 0.03 0.06 0.07 0.09 0.15 0.26 0.47 0.53 1.02 1.24 1.23 1.29 1.14 1.15 1.21 1.47 1.63 1.67 1.83 1.89 1.94 1.99 2.12 2.38 2.57 2.77 2.87 2.88 2.92 3.13 3.33 3.51 3.47 3.35 3.24 2.97 2.68 2.42 2.38
0.02 0.02 0.02 0.04 0.05 0.04 0.06 0.05 0.07 0.14 0.25 0.46 0.51 0.72 1.22 1.47 1.49 1.24 1.17 1.17 1.30 1.33 1.41 1.55 1.63 1.64 1.69 1.84 2.05 2.29 2.59 2.74 2.82 2.80 2.89 3.11 3.41 3.42 3.18 2.94 2.88 2.70 2.47 2.25
0.03 0.04 0.05 0.05 0.05 0.04 0.06 0.07 0.13 0.21 0.32 0.72 0.63 0.70 1.13 1.37 1.21 1.15 1.07 1.00 1.07 1.06 1.19 1.39 1.50 1.56 1.58 1.66 1.90 2.13 2.37 2.38 2.49 2.56 2.57 2.63 2.81 2.95 2.79 2.61 2.55 2.36 2.20 2.06
0.12 0.11 0.09 0.06 0.06 0.06 0.08 0.15 0.53 0.93 1.11 1.07 0.66 0.75 1.21 1.10 0.94 0.96 0.98 1.01 1.05 1.03 1.02 1.20 1.37 1.39 1.52 1.63 1.74 1.89 2.04 2.15 2.16 2.20 2.13 2.10 2.18 2.33 2.32 2.23 2.24 2.15 1.95 1.79
0.22 0.24 0.17 0.09 0.08 0.10 0.13 0.23 0.68 0.99 0.97 0.95 0.80 1.17 1.37 0.97 0.89 0.86 0.79 0.79 0.81 0.77 0.75 0.85 1.02 1.14 1.28 1.44 1.52 1.64 1.77 1.90 1.98 2.04 2.05 2.01 1.97 2.05 2.14 2.22 2.08 2.01 1.79 1.63
0.15 0.16 0.12 0.08 0.07 0.11 0.22 0.29 0.33 0.55 0.66 0.99 1.19 1.41 1.23 0.95 0.95 0.88 0.87 0.81 0.79 0.74 0.70 0.72 0.82 0.93 0.99 1.09 1.20 1.32 1.47 1.63 1.80 1.81 1.93 1.91 1.78 1.86 2.04 2.14 2.06 1.97 1.92 1.80
0.08 0.09 0.11 0.09 0.11 0.15 0.18 0.22 0.30 0.45 0.70 1.01 1.21 1.54 1.71 1.45 1.27 1.06 1.09 0.97 0.85 0.73 0.67 0.68 0.68 0.70 0.69 0.81 1.09 1.23 1.38 1.53 1.59 1.56 1.52 1.47 1.54 1.71 1.85 1.85 1.78 1.91 1.98 1.99
0.07 0.08 0.11 0.14 0.15 0.17 0.20 0.23 0.30 0.39 0.48 0.78 1.20 1.39 1.17 1.21 1.20 1.17 1.04 0.97 0.91 0.80 0.66 0.64 0.69 0.71 0.71 0.80 1.02 1.05 1.11 1.32 1.39 1.36 1.26 1.27 1.35 1.46 1.54 1.56 1.56 1.73 1.82 1.88
0.09 0.10 0.15 0.20 0.18 0.16 0.18 0.22 0.32 0.49 0.54 0.64 0.96 1.18 0.83 0.91 0.93 0.83 0.78 0.78 0.69 0.67 0.60 0.59 0.68 0.80 0.92 1.08 1.02 0.90 0.91 0.98 1.13 1.18 1.17 1.21 1.24 1.23 1.22 1.25 1.36 1.48 1.54 1.58
0.13 0.16 0.29 0.50 0.50 0.31 0.25 0.21 0.25 0.33 0.43 0.51 0.80 1.08 0.90 0.87 0.94 0.86 0.82 0.82 0.72 0.66 0.63 0.66 0.77 0.82 0.84 0.98 1.08 0.93 0.90 0.97 1.09 1.14 1.22 1.31 1.32 1.23 1.14 1.17 1.27 1.28 1.25 1.28
0.12 0.13 0.24 0.49 0.45 0.34 0.31 0.27 0.29 0.34 0.45 0.48 0.55 0.83 0.96 0.96 0.92 0.89 0.86 0.78 0.77 0.72 0.62 0.66 0.80 0.95 0.94 0.93 1.02 0.95 0.92 0.98 1.11 1.30 1.51 1.55 1.47 1.37 1.27 1.19 1.19 1.19 1.15 1.23
0.13 0.12 0.13 0.18 0.23 0.31 0.33 0.27 0.27 0.29 0.32 0.48 0.46 0.59 0.85 0.93 0.84 0.87 0.91 0.70 0.63 0.72 0.69 0.63 0.74 0.92 1.01 1.02 1.03 0.98 1.02 1.07 1.20 1.44 1.58 1.61 1.59 1.52 1.43 1.32 1.25 1.20 1.22 1.23
0.21 0.18 0.19 0.20 0.26 0.32 0.33 0.28 0.23 0.21 0.22 0.29 0.36 0.57 0.67 0.65 0.72 0.74 0.71 0.69 0.71 0.81 0.77 0.71 0.72 0.79 0.95 1.02 1.07 1.12 1.21 1.25 1.30 1.31 1.36 1.48 1.56 1.54 1.47 1.32 1.25 1.29 1.30 1.28
0.35 0.34 0.31 0.31 0.30 0.37 0.42 0.33 0.27 0.24 0.22 0.29 0.48 0.70 0.68 0.65 0.71 0.66 0.59 0.61 0.76 0.82 0.73 0.69 0.73 0.76 0.83 0.87 0.96 1.19 1.22 1.19 1.21 1.27 1.35 1.45 1.50 1.48 1.42 1.27 1.25 1.28 1.29 1.32
0.33 0.41 0.41 0.41 0.53 0.67 0.45 0.27 0.26 0.30 0.29 0.30 0.42 0.53 0.59 0.55 0.59 0.60 0.55 0.55 0.58 0.64 0.62 0.63 0.70 0.78 0.80 0.76 0.75 0.86 0.99 1.11 1.17 1.22 1.30 1.38 1.42 1.50 1.55 1.46 1.35 1.37 1.39 1.35
0.30 0.45 0.50 0.56 0.71 0.59 0.38 0.34 0.36 0.41 0.46 0.39 0.42 0.48 0.56 0.59 0.60 0.70 0.62 0.57 0.53 0.51 0.55 0.67 0.79 0.77 0.76 0.76 0.76 0.86 0.99 1.11 1.24 1.30 1.33 1.34 1.42 1.57 1.62 1.50 1.46 1.49 1.46 1.37
0.36 0.44 0.61 0.67 0.85 0.80 0.59 0.43 0.38 0.49 0.88 0.62 0.50 0.51 0.60 0.66 0.76 0.86 0.68 0.62 0.59 0.59 0.64 0.63 0.64 0.63 0.68 0.80 0.89 0.97 1.12 1.29 1.36 1.37 1.43 1.50 1.52 1.63 1.73 1.76 1.72 1.65 1.60 1.52
0.77 0.72 0.67 0.78 0.94 0.81 0.58 0.47 0.53 0.93 1.16 0.78 0.66 0.63 0.68 0.79 0.79 0.76 0.69 0.61 0.59 0.62 0.65 0.66 0.71 0.74 0.77 0.81 0.98 1.18 1.27 1.35 1.38 1.39 1.41 1.58 1.66 1.77 1.94 2.11 2.02 1.96 1.89 1.86
1.03 1.06 1.01 1.05 1.21 1.19 0.71 0.60 0.89 1.11 0.90 0.84 0.83 0.81 0.78 0.71 0.65 0.64 0.68 0.64 0.59 0.61 0.72 0.78 0.89 0.93 0.85 0.85 0.99 1.17 1.27 1.32 1.45 1.49 1.54 1.60 1.75 1.82 1.98 2.34 2.32 2.33 2.33 2.18
1.13 1.25 1.35 1.34 1.34 1.07 0.95 1.02 1.05 1.09 0.98 0.92 0.77 0.70 0.68 0.69 0.68 0.72 0.81 0.81 0.72 0.66 0.73 0.79 0.92 1.00 1.02 1.09 1.21 1.37 1.42 1.48 1.57 1.69 1.81 1.88 1.96 2.10 2.18 2.32 2.37 2.41 2.39 2.27
1.10 1.02 1.35 1.50 1.39 1.26 1.13 1.03 1.08 1.23 1.12 0.92 0.78 0.73 0.74 0.74 0.68 0.66 0.70 0.76 0.78 0.75 0.82 0.90 0.98 1.17 1.28 1.32 1.41 1.53 1.64 1.74 1.85 1.98 2.07 2.12 2.16 2.17 2.21 2.34 2.35 2.36 2.36 2.27
1.05 1.05 1.36 1.62 1.56 1.54 1.33 1.04 0.97 1.00 0.93 0.81 0.81 0.79 0.80 0.84 0.79 0.72 0.68 0.70 0.77 0.89 0.99 1.06 1.17 1.29 1.32 1.40 1.49 1.60 1.79 1.98 2.06 2.07 2.07 2.06 2.11 2.26 2.32 2.29 2.28 2.34 2.40 2.37
1.23 1.22 1.50 1.79 1.57 1.54 1.44 1.15 1.00 0.88 0.79 0.77 0.91 0.95 0.87 0.88 0.90 0.85 0.83 0.84 0.88 0.97 1.10 1.21 1.31 1.40 1.42 1.55 1.71 1.82 1.99 2.18 2.35 2.31 2.22 2.23 2.26 2.34 2.35 2.30 2.24 2.29 2.24 2.18

GEFSCGP_prec_meanprecacc_288.txt.gz
Total_Precipitation_Accumulation
0.00 0.01 0.02 0.04 0.07 0.11 0.13 0.15 0.19 0.20 0.22 0.28 0.39 0.60 0.81 0.92 1.10 1.23 1.22 1.35 1.74 2.14 2.45 2.73 2.87 3.10 3.42 3.72 3.99 4.27 4.67 4.84 4.68 4.68 4.60 4.47 4.17 4.01 3.66 3.23 2.89 2.84 2.84 3.06
0.00 0.01 0.01 0.02 0.04 0.08 0.09 0.12 0.17 0.20 0.23 0.30 0.35 0.57 0.78 0.80 1.00 1.13 1.24 1.42 1.58 1.79 2.27 2.54 2.56 2.80 3.03 3.56 4.06 4.39 4.38 4.28 4.06 4.21 4.54 4.79 4.77 4.27 3.67 3.31 3.16 2.80 2.76 2.87
0.01 0.03 0.02 0.02 0.03 0.04 0.09 0.13 0.17 0.20 0.23 0.35 0.45 0.89 1.01 0.90 0.98 1.07 1.15 1.33 1.47 1.64 1.83 2.14 2.17 2.27 2.48 2.99 3.50 3.64 3.51 3.45 3.32 3.41 3.75 4.03 4.30 4.06 3.73 3.42 3.13 2.78 2.70 2.67
0.01 0.02 0.02 0.03 0.03 0.03 0.07 0.08 0.10 0.15 0.27 0.48 0.54 1.02 1.24 1.23 1.29 1.14 1.15 1.21 1.47 1.63 1.67 1.83 1.89 1.94 1.99 2.12 2.38 2.57 2.77 2.87 2.88 2.93 3.16 3.36 3.57 3.57 3.46 3.37 3.07 2.75 2.48 2.44
0.02 0.02 0.03 0.04 0.05 0.04 0.06 0.07 0.09 0.15 0.26 0.47 0.51 0.73 1.22 1.47 1.49 1.24 1.17 1.17 1.31 1.33 1.41 1.55 1.63 1.64 1.69 1.84 2.05 2.29 2.59 2.74 2.82 2.81 2.90 3.11 3.42 3.44 3.22 3.04 3.03 2.82 2.58 2.33
0.03 0.04 0.05 0.05 0.05 0.04 0.06 0.08 0.14 0.21 0.32 0.72 0.63 0.71 1.14 1.37 1.21 1.16 1.07 1.00 1.07 1.06 1.19 1.40 1.51 1.56 1.58 1.66 1.90 2.13 2.37 2.38 2.50 2.56 2.58 2.63 2.82 2.96 2.80 2.62 2.61 2.46 2.31 2.17
0.12 0.11 0.09 0.06 0.06 0.06 0.08 0.15 0.53 0.93 1.11 1.07 0.66 0.75 1.21 1.11 0.95 0.96 0.98 1.01 1.06 1.03 1.02 1.20 1.38 1.39 1.52 1.63 1.75 1.89 2.05 2.15 2.16 2.20 2.14 2.10 2.19 2.34 2.33 2.24 2.26 2.17 2.00 1.85
0.22 0.24 0.17 0.09 0.08 0.10 0.14 0.23 0.68 0.99 0.97 0.95 0.80 1.18 1.38 0.97 0.89 0.87 0.79 0.79 0.82 0.77 0.75 0.85 1.02 1.14 1.29 1.44 1.52 1.64 1.77 1.90 1.99 2.04 2.06 2.01 1.98 2.06 2.15 2.23 2.09 2.02 1.80 1.64
0.15 0.16 0.12 0.09 0.07 0.11 0.22 0.29 0.33 0.55 0.66 0.99 1.19 1.41 1.23 0.95 0.96 0.90 0.89 0.82 0.80 0.74 0.70 0.72 0.82 0.93 0.99 1.10 1.21 1.33 1.48 1.64 1.82 1.82 1.94 1.92 1.80 1.88 2.05 2.16 2.07 1.98 1.93 1.81
0.08 0.09 0.11 0.09 0.11 0.15 0.18 0.22 0.30 0.46 0.70 1.01 1.21 1.55 1.71 1.45 1.28 1.07 1.10 0.98 0.86 0.74 0.67 0.68 0.69 0.70 0.70 0.82 1.09 1.24 1.39 1.55 1.61 1.59 1.55 1.49 1.55 1.72 1.87 1.87 1.80 1.92 2.00 2.00
0.07 0.08 0.11 0.14 0.15 0.17 0.20 0.23 0.30 0.39 0.49 0.78 1.21 1.39 1.17 1.21 1.20 1.18 1.04 0.97 0.92 0.81 0.66 0.64 0.70 0.72 0.72 0.81 1.02 1.06 1.12 1.32 1.40 1.39 1.29 1.29 1.36 1.47 1.56 1.57 1.58 1.75 1.83 1.89
0.09 0.10 0.16 0.21 0.18 0.16 0.19 0.22 0.32 0.49 0.54 0.64 0.96 1.18 0.83 0.91 0.93 0.84 0.79 0.79 0.70 0.68 0.61 0.60 0.69 0.80 0.92 1.08 1.02 0.91 0.92 0.99 1.14 1.19 1.19 1.23 1.27 1.25 1.23 1.25 1.37 1.49 1.56 1.59
0.13 0.17 0.29 0.50 0.50 0.31 0.25 0.21 0.25 0.33 0.43 0.51 0.80 1.09 0.90 0.88 0.94 0.87 0.83 0.82 0.72 0.67 0.63 0.67 0.77 0.82 0.84 0.98 1.08 0.94 0.92 0.99 1.12 1.17 1.25 1.34 1.35 1.25 1.15 1.18 1.28 1.29 1.25 1.28
0.12 0.14 0.25 0.49 0.45 0.35 0.31 0.27 0.29 0.34 0.45 0.48 0.55 0.83 0.97 0.97 0.93 0.90 0.87 0.78 0.77 0.72 0.62 0.66 0.80 0.95 0.95 0.93 1.02 0.96 0.93 1.01 1.14 1.33 1.54 1.57 1.49 1.38 1.28 1.20 1.20 1.20 1.16 1.24
0.13 0.12 0.13 0.18 0.24 0.32 0.34 0.28 0.27 0.29 0.32 0.48 0.46 0.60 0.86 0.94 0.85 0.88 0.91 0.70 0.63 0.72 0.69 0.63 0.75 0.93 1.02 1.03 1.04 1.00 1.04 1.09 1.23 1.46 1.60 1.63 1.61 1.54 1.46 1.34 1.27 1.22 1.23 1.23
0.21 0.19 0.20 0.21 0.27 0.33 0.33 0.29 0.24 0.21 0.22 0.29 0.36 0.57 0.68 0.65 0.72 0.75 0.71 0.69 0.71 0.81 0.78 0.72 0.73 0.80 0.96 1.04 1.09 1.13 1.22 1.27 1.32 1.32 1.37 1.49 1.58 1.58 1.51 1.36 1.28 1.31 1.31 1.29
0.35 0.35 0.31 0.32 0.31 0.38 0.42 0.33 0.27 0.24 0.22 0.29 0.49 0.71 0.69 0.66 0.72 0.66 0.59 0.62 0.77 0.83 0.73 0.70 0.73 0.77 0.84 0.88 0.96 1.20 1.23 1.20 1.22 1.28 1.36 1.47 1.52 1.50 1.45 1.31 1.29 1.32 1.31 1.33
0.33 0.42 0.41 0.42 0.53 0.68 0.45 0.27 0.27 0.30 0.29 0.31 0.43 0.54 0.59 0.57 0.60 0.61 0.56 0.56 0.59 0.65 0.63 0.64 0.71 0.79 0.81 0.77 0.77 0.86 1.00 1.11 1.18 1.23 1.31 1.40 1.44 1.52 1.57 1.50 1.38 1.39 1.39 1.36
0.30 0.45 0.50 0.56 0.72 0.60 0.39 0.34 0.37 0.42 0.46 0.39 0.43 0.49 0.57 0.60 0.63 0.71 0.63 0.58 0.53 0.51 0.55 0.67 0.80 0.77 0.77 0.77 0.77 0.87 1.01 1.13 1.26 1.32 1.35 1.36 1.45 1.60 1.64 1.53 1.47 1.49 1.46 1.37
0.36 0.45 0.62 0.68 0.86 0.81 0.60 0.44 0.39 0.49 0.88 0.62 0.50 0.52 0.61 0.66 0.78 0.87 0.68 0.62 0.59 0.60 0.64 0.64 0.64 0.64 0.69 0.80 0.90 0.98 1.13 1.31 1.39 1.40 1.46 1.53 1.57 1.68 1.78 1.80 1.74 1.66 1.61 1.53
0.77 0.72 0.68 0.79 0.95 0.82 0.59 0.48 0.54 0.94 1.17 0.79 0.67 0.63 0.68 0.79 0.80 0.77 0.70 0.61 0.60 0.63 0.66 0.67 0.71 0.74 0.78 0.81 0.99 1.18 1.28 1.36 1.40 1.42 1.44 1.61 1.71 1.83 2.00 2.17 2.06 2.00 1.92 1.88
1.03 1.07 1.02 1.05 1.22 1.20 0.73 0.61 0.90 1.11 0.90 0.84 0.84 0.81 0.79 0.72 0.65 0.65 0.69 0.64 0.60 0.62 0.73 0.79 0.90 0.94 0.86 0.87 1.02 1.19 1.29 1.34 1.47 1.51 1.56 1.63 1.78 1.86 2.04 2.42 2.40 2.41 2.40 2.24
1.14 1.27 1.37 1.36 1.36 1.09 0.97 1.02 1.05 1.09 0.98 0.92 0.77 0.70 0.69 0.70 0.69 0.73 0.83 0.83 0.73 0.67 0.75 0.81 0.94 1.02 1.04 1.11 1.24 1.40 1.45 1.51 1.59 1.72 1.84 1.91 1.99 2.16 2.26 2.41 2.46 2.50 2.47 2.35
1.11 1.03 1.36 1.51 1.39 1.27 1.14 1.04 1.08 1.23 1.12 0.92 0.78 0.73 0.74 0.74 0.69 0.66 0.71 0.78 0.79 0.76 0.83 0.92 1.00 1.20 1.31 1.37 1.46 1.57 1.67 1.76 1.88 2.01 2.11 2.16 2.21 2.23 2.27 2.42 2.44 2.45 2.45 2.35
1.06 1.05 1.38 1.63 1.57 1.55 1.34 1.05 0.98 1.01 0.94 0.81 0.82 0.80 0.81 0.85 0.80 0.72 0.69 0.71 0.78 0.90 1.01 1.08 1.20 1.33 1.37 1.45 1.54 1.64 1.83 2.02 2.10 2.12 2.11 2.09 2.14 2.29 2.36 2.35 2.35 2.42 2.48 2.47
1.24 1.23 1.52 1.81 1.59 1.56 1.45 1.17 1.02 0.90 0.81 0.79 0.93 0.96 0.88 0.89 0.90 0.86 0.84 0.85 0.89 0.98 1.12 1.24 1.34 1.43 1.46 1.59 1.75 1.86 2.02 2.23 2.40 2.36 2.27 2.26 2.29 2.36 2.37 2.33 2.27 2.33 2.29 2.23

GEFSCGP_prec_meanprecacc_294.txt.gz
Total_Precipitation_Accumulation
0.00 0.01 0.02 0.04 0.07 0.12 0.13 0.15 0.20 0.20 0.22 0.28 0.39 0.60 0.81 0.92 1.10 1.23 1.22 1.35 1.74 2.15 2.45 2.73 2.87 3.10 3.42 3.73 4.01 4.31 4.78 5.03 4.87 4.85 4.73 4.55 4.22 4.05 3.70 3.27 2.92 2.87 2.87 3.11
0.01 0.01 0.02 0.02 0.04 0.08 0.09 0.12 0.17 0.20 0.23 0.30 0.35 0.57 0.78 0.80 1.00 1.13 1.24 1.42 1.58 1.79 2.27 2.54 2.56 2.80 3.03 3.56 4.06 4.41 4.44 4.39 4.21 4.41 4.74 4.94 4.84 4.31 3.71 3.36 3.20 2.84 2.79 2.92
0.02 0.03 0.02 0.02 0.03 0.04 0.10 0.13 0.18 0.20 0.23 0.35 0.45 0.89 1.01 0.90 0.98 1.07 1.15 1.33 1.47 1.64 1.83 2.14 2.17 2.27 2.49 2.99 3.51 3.65 3.53 3.48 3.36 3.48 3.85 4.12 4.38 4.12 3.78 3.46 3.17 2.82 2.73 2.71
0.01 0.02 0.02 0.03 0.03 0.03 0.07 0.09 0.10 0.15 0.27 0.48 0.54 1.02 1.24 1.23 1.29 1.14 1.15 1.21 1.47 1.63 1.67 1.83 1.89 1.94 2.00 2.13 2.38 2.58 2.78 2.88 2.89 2.95 3.17 3.38 3.59 3.62 3.54 3.45 3.12 2.80 2.52 2.49
0.02 0.02 0.03 0.05 0.05 0.04 0.06 0.07 0.09 0.15 0.26 0.47 0.51 0.73 1.22 1.47 1.49 1.24 1.17 1.17 1.31 1.33 1.41 1.55 1.63 1.64 1.69 1.84 2.06 2.30 2.60 2.75 2.83 2.82 2.91 3.12 3.43 3.45 3.25 3.10 3.15 2.93 2.67 2.41
0.03 0.04 0.05 0.05 0.05 0.04 0.06 0.08 0.14 0.22 0.33 0.73 0.63 0.71 1.14 1.37 1.21 1.16 1.07 1.00 1.07 1.06 1.19 1.40 1.51 1.56 1.58 1.67 1.90 2.13 2.38 2.39 2.50 2.57 2.58 2.64 2.83 2.98 2.82 2.65 2.66 2.56 2.47 2.37
0.12 0.11 0.09 0.06 0.06 0.06 0.08 0.15 0.53 0.94 1.12 1.08 0.66 0.75 1.21 1.11 0.95 0.96 0.98 1.01 1.06 1.03 1.02 1.20 1.38 1.39 1.52 1.63 1.75 1.89 2.05 2.15 2.17 2.21 2.14 2.10 2.20 2.35 2.35 2.26 2.28 2.21 2.04 1.94
0.22 0.24 0.17 0.09 0.08 0.10 0.14 0.23 0.69 0.99 0.98 0.95 0.80 1.18 1.38 0.97 0.89 0.87 0.79 0.79 0.82 0.77 0.75 0.85 1.02 1.14 1.29 1.44 1.52 1.64 1.77 1.91 1.99 2.05 2.06 2.02 1.99 2.07 2.16 2.25 2.12 2.05 1.82 1.66
0.15 0.16 0.12 0.09 0.07 0.11 0.22 0.29 0.33 0.55 0.66 1.00 1.19 1.41 1.23 0.95 0.96 0.90 0.89 0.82 0.80 0.74 0.70 0.72 0.82 0.93 0.99 1.10 1.21 1.33 1.48 1.64 1.82 1.82 1.94 1.92 1.80 1.88 2.07 2.18 2.09 1.99 1.95 1.82
0.08 0.10 0.11 0.09 0.11 0.15 0.18 0.22 0.30 0.46 0.70 1.01 1.21 1.55 1.71 1.45 1.28 1.07 1.10 0.98 0.86 0.74 0.67 0.68 0.69 0.71 0.70 0.82 1.10 1.24 1.40 1.55 1.61 1.59 1.56 1.49 1.56 1.73 1.89 1.88 1.81 1.94 2.01 2.01
0.07 0.08 0.11 0.14 0.15 0.17 0.20 0.23 0.30 0.39 0.49 0.78 1.21 1.40 1.17 1.21 1.20 1.18 1.05 0.97 0.92 0.81 0.66 0.64 0.70 0.72 0.72 0.81 1.02 1.06 1.12 1.33 1.40 1.39 1.30 1.30 1.38 1.49 1.57 1.58 1.60 1.76 1.85 1.91
0.09 0.10 0.16 0.21 0.18 0.16 0.19 0.22 0.32 0.49 0.54 0.65 0.96 1.18 0.83 0.91 0.93 0.84 0.79 0.79 0.70 0.68 0.61 0.60 0.69 0.81 0.92 1.08 1.02 0.91 0.92 0.99 1.14 1.21 1.21 1.25 1.28 1.26 1.24 1.26 1.39 1.51 1.57 1.60
0.13 0.17 0.30 0.50 0.51 0.31 0.25 0.21 0.25 0.33 0.43 0.51 0.81 1.09 0.90 0.88 0.95 0.87 0.83 0.82 0.73 0.67 0.64 0.67 0.77 0.82 0.84 0.98 1.09 0.94 0.92 0.99 1.12 1.18 1.27 1.36 1.36 1.26 1.16 1.18 1.29 1.30 1.26 1.29
0.12 0.14 0.27 0.51 0.46 0.35 0.31 0.27 0.29 0.35 0.45 0.49 0.56 0.83 0.97 0.97 0.93 0.90 0.87 0.78 0.77 0.72 0.62 0.66 0.80 0.95 0.95 0.93 1.03 0.96 0.94 1.01 1.15 1.35 1.55 1.58 1.50 1.40 1.30 1.21 1.21 1.21 1.17 1.25
0.13 0.12 0.14 0.19 0.25 0.32 0.34 0.28 0.27 0.29 0.33 0.49 0.46 0.60 0.86 0.94 0.86 0.88 0.91 0.70 0.63 0.72 0.69 0.64 0.75 0.93 1.02 1.04 1.05 1.01 1.05 1.10 1.24 1.47 1.61 1.64 1.62 1.55 1.47 1.35 1.27 1.22 1.23 1.23
0.21 0.19 0.20 0.21 0.28 0.34 0.34 0.29 0.24 0.21 0.22 0.29 0.37 0.58 0.68 0.65 0.72 0.75 0.72 0.70 0.71 0.81 0.78 0.72 0.73 0.80 0.97 1.05 1.10 1.14 1.23 1.27 1.32 1.33 1.37 1.49 1.58 1.58 1.52 1.37 1.28 1.31 1.32 1.29
0.35 0.35 0.31 0.32 0.32 0.39 0.43 0.34 0.28 0.25 0.23 0.30 0.49 0.71 0.69 0.66 0.72 0.67 0.60 0.62 0.77 0.83 0.74 0.70 0.74 0.77 0.85 0.88 0.97 1.21 1.24 1.21 1.23 1.29 1.37 1.47 1.52 1.50 1.46 1.32 1.30 1.32 1.32 1.34
0.33 0.42 0.42 0.43 0.54 0.68 0.46 0.28 0.28 0.31 0.30 0.31 0.43 0.54 0.59 0.57 0.60 0.61 0.56 0.57 0.59 0.65 0.63 0.65 0.72 0.79 0.81 0.78 0.77 0.87 1.01 1.12 1.19 1.24 1.32 1.40 1.44 1.52 1.58 1.50 1.39 1.39 1.40 1.36
0.30 0.45 0.51 0.57 0.72 0.60 0.40 0.35 0.37 0.42 0.47 0.40 0.43 0.49 0.57 0.60 0.63 0.72 0.63 0.58 0.53 0.51 0.55 0.68 0.80 0.78 0.77 0.77 0.77 0.87 1.01 1.13 1.27 1.32 1.35 1.36 1.45 1.61 1.65 1.54 1.48 1.50 1.47 1.38
0.36 0.45 0.63 0.70 0.88 0.81 0.61 0.45 0.40 0.50 0.89 0.62 0.51 0.52 0.61 0.67 0.78 0.87 0.69 0.62 0.59 0.60 0.65 0.64 0.65 0.64 0.69 0.80 0.90 0.98 1.13 1.31 1.39 1.40 1.46 1.54 1.58 1.69 1.80 1.82 1.76 1.67 1.63 1.55
0.77 0.73 0.70 0.82 0.97 0.83 0.60 0.49 0.55 0.95 1.17 0.79 0.67 0.64 0.69 0.80 0.80 0.77 0.70 0.61 0.60 0.63 0.66 0.67 0.72 0.74 0.78 0.82 0.99 1.19 1.29 1.37 1.41 1.43 1.45 1.62 1.72 1.85 2.02 2.20 2.11 2.03 1.94 1.91
1.04 1.09 1.05 1.08 1.24 1.22 0.74 0.61 0.91 1.12 0.90 0.85 0.84 0.82 0.79 0.72 0.66 0.65 0.69 0.65 0.60 0.62 0.73 0.80 0.90 0.95 0.87 0.88 1.02 1.20 1.31 1.37 1.50 1.53 1.58 1.65 1.80 1.88 2.06 2.44 2.44 2.45 2.44 2.27
1.15 1.28 1.39 1.37 1.39 1.13 0.98 1.03 1.06 1.10 0.99 0.92 0.78 0.71 0.69 0.70 0.69 0.73 0.83 0.83 0.73 0.68 0.75 0.82 0.95 1.03 1.05 1.13 1.26 1.43 1.48 1.54 1.62 1.74 1.86 1.92 2.01 2.18 2.28 2.44 2.49 2.53 2.50 2.39
1.11 1.03 1.37 1.52 1.41 1.28 1.15 1.05 1.09 1.24 1.13 0.94 0.79 0.74 0.75 0.75 0.69 0.67 0.72 0.79 0.79 0.77 0.84 0.92 1.00 1.21 1.33 1.38 1.49 1.62 1.72 1.80 1.92 2.04 2.12 2.18 2.23 2.24 2.29 2.45 2.47 2.48 2.47 2.36
1.07 1.06 1.39 1.64 1.58 1.56 1.35 1.05 0.99 1.02 0.96 0.83 0.83 0.81 0.82 0.87 0.81 0.73 0.70 0.72 0.79 0.91 1.02 1.09 1.21 1.34 1.38 1.47 1.57 1.70 1.90 2.07 2.14 2.14 2.13 2.11 2.16 2.31 2.39 2.38 2.38 2.44 2.50 2.49
1.25 1.24 1.53 1.82 1.60 1.58 1.46 1.18 1.02 0.91 0.83 0.81 0.95 0.98 0.90 0.90 0.92 0.87 0.85 0.86 0.90 0.99 1.13 1.24 1.35 1.44 1.48 1.62 1.79 1.91 2.08 2.29 2.44 2.39 2.29 2.29 2.32 2.39 2.40 2.36 2.29 2.35 2.30 2.25

GEFSCGP_prec_meanprecacc_300.txt.gz
Total_Precipitation_Accumulation
0.00 0.01 0.03 0.06 0.09 0.13 0.13 0.16 0.21 0.21 0.22 0.28 0.39 0.60 0.81 0.92 1.10 1.24 1.23 1.35 1.74 2.15 2.45 2.73 2.87 3.10 3.42 3.74 4.02 4.33 4.82 5.08 4.92 4.94 4.85 4.68 4.35 4.16 3.78 3.32 2.96 2.90 2.92 3.17
0.01 0.02 0.03 0.04 0.05 0.08 0.10 0.13 0.18 0.20 0.23 0.30 0.35 0.57 0.78 0.80 1.00 1.14 1.24 1.42 1.58 1.79 2.27 2.54 2.56 2.80 3.04 3.56 4.07 4.42 4.47 4.43 4.26 4.48 4.87 5.09 4.99 4.41 3.77 3.40 3.26 2.89 2.83 2.97
0.02 0.03 0.02 0.03 0.03 0.04 0.10 0.14 0.18 0.20 0.23 0.35 0.45 0.90 1.01 0.90 0.99 1.08 1.16 1.33 1.47 1.64 1.83 2.15 2.18 2.27 2.49 2.99 3.51 3.67 3.57 3.52 3.41 3.53 3.93 4.23 4.48 4.19 3.83 3.50 3.22 2.85 2.75 2.74
0.02 0.02 0.02 0.03 0.03 0.03 0.08 0.09 0.11 0.16 0.28 0.49 0.55 1.06 1.26 1.24 1.31 1.14 1.16 1.21 1.47 1.63 1.67 1.83 1.89 1.94 2.00 2.13 2.39 2.59 2.81 2.92 2.93 2.98 3.21 3.43 3.67 3.70 3.60 3.49 3.17 2.83 2.54 2.50
0.03 0.02 0.03 0.05 0.05 0.04 0.06 0.07 0.09 0.15 0.26 0.48 0.52 0.75 1.26 1.48 1.50 1.25 1.17 1.17 1.31 1.33 1.41 1.55 1.63 1.65 1.69 1.84 2.06 2.30 2.62 2.79 2.86 2.84 2.94 3.16 3.47 3.50 3.29 3.14 3.19 2.97 2.70 2.43
0.05 0.04 0.05 0.06 0.05 0.04 0.06 0.08 0.14 0.22 0.33 0.74 0.64 0.73 1.19 1.39 1.23 1.18 1.08 1.00 1.07 1.06 1.19 1.40 1.51 1.56 1.58 1.67 1.91 2.14 2.38 2.40 2.52 2.58 2.60 2.67 2.88 3.02 2.87 2.71 2.73 2.61 2.51 2.40
0.13 0.11 0.09 0.06 0.06 0.06 0.08 0.15 0.55 0.96 1.14 1.09 0.67 0.77 1.25 1.12 0.95 0.97 0.98 1.01 1.06 1.03 1.02 1.20 1.38 1.39 1.52 1.63 1.75 1.90 2.05 2.16 2.18 2.22 2.15 2.13 2.23 2.38 2.38 2.30 2.33 2.26 2.08 1.98
0.22 0.24 0.17 0.09 0.08 0.10 0.14 0.24 0.71 1.02 1.01 1.00 0.84 1.21 1.39 0.98 0.90 0.88 0.80 0.79 0.82 0.77 0.75 0.85 1.02 1.14 1.29 1.44 1.52 1.64 1.78 1.91 2.01 2.06 2.07 2.04 2.01 2.09 2.18 2.28 2.14 2.09 1.86 1.71
0.15 0.17 0.12 0.09 0.07 0.11 0.22 0.29 0.33 0.55 0.67 1.03 1.25 1.44 1.24 0.97 1.00 0.94 0.90 0.82 0.80 0.74 0.70 0.72 0.82 0.93 0.99 1.10 1.21 1.33 1.48 1.65 1.83 1.83 1.95 1.94 1.82 1.91 2.09 2.20 2.11 2.01 1.98 1.86
0.08 0.10 0.11 0.09 0.11 0.15 0.18 0.22 0.30 0.46 0.71 1.03 1.23 1.57 1.74 1.48 1.31 1.08 1.10 0.98 0.86 0.74 0.68 0.68 0.69 0.71 0.70 0.82 1.10 1.24 1.40 1.55 1.61 1.59 1.56 1.50 1.57 1.75 1.91 1.90 1.84 1.97 2.04 2.04
0.07 0.08 0.12 0.14 0.15 0.17 0.20 0.23 0.30 0.39 0.49 0.79 1.24 1.45 1.22 1.25 1.23 1.19 1.05 0.97 0.92 0.81 0.67 0.64 0.70 0.73 0.72 0.81 1.03 1.06 1.13 1.33 1.40 1.40 1.31 1.31 1.40 1.51 1.60 1.62 1.63 1.78 1.87 1.93
0.09 0.10 0.17 0.21 0.18 0.16 0.19 0.22 0.32 0.50 0.54 0.65 0.99 1.23 0.85 0.93 0.94 0.84 0.79 0.79 0.70 0.68 0.62 0.61 0.69 0.81 0.93 1.09 1.03 0.92 0.93 1.00 1.14 1.21 1.22 1.27 1.30 1.28 1.27 1.30 1.43 1.53 1.59 1.62
0.13 0.17 0.31 0.51 0.51 0.31 0.25 0.21 0.25 0.33 0.44 0.53 0.83 1.13 0.92 0.89 0.95 0.87 0.83 0.83 0.73 0.67 0.64 0.67 0.78 0.82 0.84 0.99 1.09 0.95 0.92 0.99 1.12 1.19 1.27 1.37 1.38 1.29 1.19 1.22 1.32 1.32 1.28 1.32
0.12 0.14 0.27 0.52 0.47 0.35 0.31 0.27 0.29 0.35 0.46 0.49 0.57 0.88 1.00 0.99 0.96 0.92 0.87 0.78 0.77 0.72 0.63 0.67 0.80 0.95 0.95 0.94 1.03 0.97 0.94 1.02 1.16 1.36 1.57 1.60 1.52 1.41 1.31 1.22 1.22 1.22 1.19 1.27
0.13 0.12 0.14 0.19 0.25 0.33 0.36 0.29 0.27 0.29 0.33 0.49 0.49 0.66 0.90 0.96 0.87 0.89 0.92 0.70 0.63 0.72 0.69 0.64 0.75 0.93 1.03 1.05 1.06 1.01 1.05 1.11 1.25 1.49 1.63 1.66 1.64 1.57 1.48 1.37 1.28 1.24 1.25 1.25
0.21 0.19 0.20 0.22 0.29 0.35 0.35 0.29 0.24 0.21 0.23 0.31 0.42 0.62 0.72 0.68 0.74 0.76 0.72 0.70 0.71 0.81 0.78 0.72 0.73 0.80 0.97 1.06 1.11 1.15 1.23 1.28 1.34 1.36 1.40 1.52 1.60 1.60 1.54 1.39 1.31 1.34 1.34 1.32
0.35 0.35 0.31 0.33 0.33 0.39 0.43 0.34 0.28 0.25 0.24 0.35 0.55 0.75 0.72 0.69 0.75 0.68 0.60 0.62 0.77 0.83 0.75 0.71 0.74 0.77 0.85 0.89 0.99 1.24 1.26 1.23 1.24 1.31 1.39 1.51 1.55 1.52 1.48 1.34 1.33 1.35 1.34 1.36
0.33 0.42 0.42 0.43 0.55 0.70 0.47 0.28 0.29 0.33 0.34 0.38 0.53 0.60 0.62 0.60 0.64 0.63 0.56 0.57 0.60 0.65 0.64 0.66 0.73 0.80 0.82 0.79 0.79 0.90 1.03 1.14 1.21 1.26 1.34 1.44 1.48 1.54 1.60 1.52 1.41 1.41 1.42 1.39
0.30 0.46 0.51 0.58 0.74 0.63 0.42 0.37 0.39 0.46 0.53 0.47 0.53 0.56 0.60 0.62 0.66 0.74 0.64 0.58 0.54 0.51 0.56 0.69 0.81 0.78 0.77 0.78 0.78 0.88 1.03 1.16 1.29 1.35 1.39 1.41 1.49 1.64 1.68 1.56 1.50 1.52 1.50 1.41
0.36 0.45 0.63 0.70 0.88 0.84 0.65 0.48 0.43 0.54 0.93 0.67 0.58 0.58 0.64 0.71 0.85 0.92 0.70 0.63 0.61 0.61 0.66 0.65 0.65 0.64 0.70 0.81 0.91 0.99 1.15 1.34 1.43 1.44 1.52 1.60 1.62 1.72 1.83 1.85 1.78 1.69 1.66 1.58
0.77 0.73 0.70 0.83 0.98 0.84 0.62 0.51 0.58 0.98 1.21 0.82 0.71 0.67 0.71 0.82 0.83 0.80 0.71 0.62 0.61 0.64 0.67 0.67 0.72 0.75 0.79 0.82 1.01 1.20 1.31 1.41 1.47 1.49 1.52 1.69 1.79 1.89 2.06 2.23 2.14 2.07 1.98 1.94
1.04 1.10 1.06 1.09 1.25 1.24 0.76 0.63 0.94 1.16 0.92 0.87 0.86 0.83 0.81 0.74 0.68 0.67 0.71 0.66 0.61 0.63 0.73 0.80 0.90 0.95 0.87 0.89 1.04 1.22 1.34 1.41 1.55 1.59 1.65 1.70 1.83 1.90 2.08 2.46 2.46 2.48 2.47 2.31
1.16 1.28 1.39 1.38 1.40 1.14 0.99 1.03 1.07 1.11 1.00 0.93 0.79 0.72 0.71 0.72 0.71 0.75 0.85 0.85 0.74 0.68 0.76 0.82 0.96 1.04 1.06 1.14 1.27 1.44 1.51 1.58 1.66 1.80 1.92 1.96 2.03 2.20 2.30 2.46 2.52 2.56 2.53 2.42
1.12 1.03 1.38 1.52 1.41 1.29 1.16 1.05 1.09 1.25 1.13 0.94 0.80 0.75 0.76 0.76 0.70 0.69 0.75 0.82 0.82 0.78 0.84 0.93 1.01 1.21 1.33 1.39 1.50 1.63 1.73 1.83 1.95 2.08 2.19 2.23 2.25 2.26 2.31 2.47 2.49 2.51 2.50 2.39
1.08 1.07 1.40 1.66 1.59 1.57 1.36 1.06 0.99 1.02 0.96 0.83 0.83 0.82 0.83 0.88 0.83 0.75 0.72 0.75 0.83 0.94 1.03 1.09 1.21 1.34 1.39 1.48 1.58 1.71 1.91 2.09 2.17 2.19 2.20 2.20 2.22 2.34 2.41 2.40 2.40 2.46 2.52 2.51
1.27 1.27 1.56 1.85 1.62 1.58 1.47 1.18 1.03 0.91 0.83 0.81 0.95 0.99 0.91 0.92 0.93 0.89 0.87 0.88 0.92 1.01 1.14 1.25 1.36 1.45 1.49 1.62 1.79 1.92 2.11 2.32 2.48 2.43 2.35 2.34 2.37 2.43 2.44 2.41 2.34 2.39 2.34 2.29

GEFSCGP_prec_meanprecacc_306.txt.gz
Total_Precipitation_Accumulation
0.00 0.01 0.04 0.08 0.10 0.14 0.15 0.19 0.22 0.22 0.23 0.30 0.40 0.61 0.82 0.93 1.11 1.24 1.23 1.35 1.74 2.15 2.45 2.73 2.87 3.10 3.43 3.75 4.03 4.34 4.83 5.10 4.94 4.95 4.87 4.71 4.39 4.19 3.81 3.34 2.99 2.93 2.95 3.20
0.01 0.02 0.04 0.05 0.06 0.09 0.13 0.15 0.20 0.22 0.24 0.31 0.36 0.59 0.80 0.82 1.01 1.16 1.27 1.43 1.58 1.79 2.27 2.54 2.56 2.80 3.04 3.56 4.07 4.43 4.48 4.43 4.26 4.49 4.89 5.12 5.03 4.47 3.83 3.45 3.30 2.93 2.88 3.03
0.03 0.05 0.04 0.03 0.04 0.05 0.12 0.15 0.20 0.22 0.24 0.36 0.47 0.92 1.03 0.92 1.00 1.09 1.17 1.34 1.48 1.65 1.83 2.15 2.18 2.27 2.49 2.99 3.52 3.68 3.57 3.53 3.41 3.54 3.95 4.26 4.51 4.24 3.89 3.55 3.28 2.91 2.80 2.80
0.03 0.03 0.03 0.04 0.04 0.04 0.09 0.09 0.12 0.17 0.29 0.50 0.56 1.08 1.28 1.26 1.32 1.16 1.17 1.22 1.49 1.64 1.68 1.83 1.89 1.95 2.00 2.13 2.39 2.59 2.82 2.93 2.94 2.99 3.22 3.45 3.71 3.74 3.65 3.56 3.23 2.87 2.57 2.54
0.03 0.03 0.03 0.06 0.05 0.04 0.07 0.07 0.10 0.16 0.27 0.50 0.53 0.77 1.31 1.52 1.53 1.27 1.19 1.19 1.34 1.35 1.42 1.56 1.64 1.65 1.70 1.84 2.06 2.31 2.62 2.79 2.87 2.85 2.95 3.16 3.49 3.53 3.34 3.20 3.23 2.99 2.72 2.45
0.05 0.05 0.06 0.06 0.06 0.05 0.06 0.08 0.15 0.22 0.34 0.76 0.66 0.76 1.24 1.44 1.29 1.23 1.12 1.04 1.13 1.08 1.21 1.41 1.52 1.57 1.59 1.67 1.91 2.14 2.39 2.42 2.53 2.59 2.60 2.68 2.89 3.04 2.90 2.74 2.75 2.63 2.53 2.41
0.13 0.12 0.10 0.07 0.07 0.06 0.09 0.16 0.55 0.97 1.15 1.11 0.69 0.81 1.29 1.17 1.01 1.01 1.02 1.08 1.11 1.05 1.03 1.21 1.39 1.40 1.53 1.64 1.76 1.90 2.06 2.17 2.19 2.23 2.16 2.14 2.23 2.39 2.40 2.31 2.34 2.27 2.09 1.99
0.23 0.25 0.17 0.09 0.08 0.10 0.14 0.24 0.72 1.04 1.03 1.01 0.85 1.23 1.43 1.01 0.94 0.94 0.87 0.84 0.85 0.80 0.77 0.87 1.04 1.15 1.30 1.46 1.54 1.66 1.79 1.92 2.01 2.06 2.08 2.05 2.02 2.09 2.19 2.29 2.15 2.09 1.86 1.72
0.16 0.17 0.12 0.09 0.08 0.12 0.23 0.30 0.34 0.57 0.69 1.05 1.27 1.49 1.31 1.01 1.05 0.99 0.95 0.85 0.84 0.83 0.77 0.76 0.86 0.96 1.02 1.12 1.23 1.35 1.50 1.66 1.84 1.83 1.96 1.94 1.82 1.91 2.10 2.21 2.12 2.02 1.99 1.87
0.08 0.10 0.12 0.09 0.11 0.16 0.18 0.23 0.31 0.47 0.73 1.05 1.26 1.65 1.85 1.57 1.36 1.11 1.12 1.03 0.95 0.85 0.73 0.72 0.72 0.74 0.72 0.84 1.12 1.27 1.43 1.58 1.63 1.61 1.57 1.50 1.57 1.76 1.92 1.91 1.84 1.98 2.05 2.05
0.08 0.09 0.12 0.15 0.15 0.18 0.20 0.23 0.30 0.39 0.50 0.82 1.26 1.49 1.31 1.33 1.27 1.23 1.10 1.05 0.97 0.85 0.71 0.68 0.78 0.79 0.76 0.84 1.05 1.10 1.17 1.37 1.45 1.42 1.32 1.32 1.40 1.52 1.61 1.62 1.63 1.79 1.87 1.94
0.09 0.10 0.18 0.22 0.19 0.17 0.19 0.22 0.32 0.50 0.55 0.67 1.00 1.26 0.88 1.00 1.01 0.89 0.84 0.84 0.74 0.71 0.64 0.63 0.73 0.88 1.01 1.13 1.08 0.96 0.98 1.04 1.18 1.24 1.24 1.28 1.32 1.30 1.28 1.31 1.44 1.53 1.59 1.63
0.13 0.17 0.32 0.52 0.51 0.31 0.26 0.22 0.26 0.33 0.44 0.54 0.85 1.16 0.95 0.94 1.01 0.93 0.88 0.87 0.76 0.69 0.65 0.68 0.78 0.84 0.87 1.02 1.16 0.99 0.96 1.05 1.16 1.22 1.30 1.39 1.41 1.32 1.22 1.24 1.33 1.34 1.30 1.33
0.12 0.14 0.27 0.52 0.47 0.36 0.32 0.28 0.29 0.35 0.46 0.51 0.61 0.91 1.02 1.01 0.98 0.96 0.92 0.82 0.79 0.73 0.63 0.67 0.80 0.96 0.96 0.94 1.04 0.98 0.96 1.04 1.19 1.41 1.64 1.66 1.56 1.46 1.36 1.26 1.26 1.26 1.21 1.29
0.13 0.12 0.14 0.19 0.26 0.34 0.37 0.29 0.28 0.29 0.33 0.50 0.51 0.68 0.91 0.97 0.89 0.92 0.96 0.75 0.67 0.74 0.70 0.65 0.76 0.94 1.04 1.06 1.07 1.02 1.06 1.12 1.28 1.52 1.68 1.74 1.73 1.63 1.54 1.41 1.33 1.28 1.28 1.27
0.21 0.19 0.20 0.22 0.30 0.36 0.36 0.30 0.24 0.22 0.23 0.32 0.43 0.64 0.73 0.69 0.76 0.80 0.77 0.75 0.75 0.84 0.80 0.74 0.75 0.81 0.98 1.08 1.14 1.17 1.25 1.30 1.36 1.39 1.44 1.58 1.67 1.66 1.59 1.42 1.34 1.37 1.36 1.33
0.35 0.35 0.31 0.34 0.34 0.41 0.45 0.35 0.29 0.26 0.25 0.36 0.56 0.76 0.73 0.70 0.78 0.73 0.66 0.66 0.80 0.86 0.77 0.72 0.75 0.79 0.87 0.91 1.01 1.26 1.28 1.25 1.27 1.35 1.45 1.59 1.63 1.57 1.51 1.37 1.35 1.37 1.36 1.38
0.33 0.42 0.42 0.44 0.56 0.72 0.49 0.30 0.30 0.34 0.37 0.46 0.58 0.62 0.64 0.62 0.68 0.71 0.64 0.61 0.62 0.68 0.66 0.68 0.74 0.81 0.83 0.80 0.80 0.91 1.05 1.17 1.25 1.31 1.39 1.50 1.53 1.57 1.62 1.55 1.44 1.44 1.45 1.41
0.30 0.46 0.51 0.58 0.75 0.64 0.44 0.38 0.40 0.48 0.57 0.60 0.65 0.64 0.64 0.66 0.73 0.84 0.71 0.63 0.57 0.55 0.59 0.70 0.83 0.80 0.79 0.79 0.80 0.89 1.05 1.19 1.33 1.39 1.42 1.44 1.53 1.68 1.70 1.58 1.53 1.56 1.54 1.45
0.37 0.46 0.64 0.71 0.90 0.85 0.66 0.49 0.43 0.56 0.97 0.73 0.69 0.72 0.73 0.77 0.95 1.03 0.78 0.68 0.65 0.66 0.69 0.67 0.67 0.67 0.72 0.83 0.92 1.00 1.16 1.36 1.45 1.47 1.55 1.63 1.66 1.76 1.87 1.89 1.82 1.74 1.71 1.63
0.79 0.76 0.73 0.85 0.99 0.85 0.62 0.51 0.58 1.01 1.26 0.90 0.82 0.82 0.83 0.93 0.91 0.86 0.76 0.67 0.65 0.68 0.70 0.71 0.75 0.77 0.82 0.85 1.02 1.21 1.33 1.43 1.50 1.53 1.56 1.73 1.83 1.93 2.09 2.26 2.17 2.10 2.02 1.98
1.05 1.11 1.08 1.10 1.26 1.25 0.77 0.64 0.95 1.20 0.99 0.98 1.00 0.95 0.98 0.87 0.73 0.72 0.74 0.68 0.64 0.66 0.77 0.84 0.95 1.00 0.93 0.94 1.07 1.24 1.35 1.42 1.58 1.62 1.69 1.74 1.87 1.96 2.12 2.49 2.48 2.51 2.49 2.33
1.16 1.29 1.40 1.39 1.40 1.14 0.99 1.04 1.08 1.14 1.05 1.03 0.91 0.81 0.86 0.83 0.78 0.80 0.88 0.86 0.76 0.72 0.80 0.87 1.02 1.10 1.13 1.20 1.32 1.49 1.54 1.60 1.67 1.82 1.94 1.99 2.06 2.22 2.33 2.49 2.54 2.57 2.55 2.43
1.12 1.03 1.38 1.53 1.42 1.29 1.16 1.05 1.10 1.25 1.15 0.98 0.85 0.82 0.86 0.86 0.78 0.74 0.78 0.84 0.83 0.80 0.88 0.99 1.09 1.28 1.38 1.44 1.56 1.70 1.79 1.86 1.97 2.11 2.22 2.26 2.29 2.29 2.35 2.50 2.52 2.53 2.51 2.40
1.09 1.07 1.40 1.66 1.60 1.58 1.38 1.08 1.00 1.03 0.96 0.85 0.87 0.86 0.88 0.94 0.88 0.78 0.75 0.77 0.84 0.96 1.05 1.13 1.26 1.42 1.48 1.58 1.66 1.78 1.97 2.13 2.19 2.20 2.22 2.22 2.26 2.38 2.46 2.45 2.44 2.50 2.55 2.53
1.29 1.28 1.58 1.89 1.66 1.63 1.52 1.23 1.06 0.93 0.84 0.82 0.97 1.01 0.93 0.94 0.95 0.91 0.89 0.90 0.95 1.03 1.16 1.28 1.40 1.51 1.59 1.75 1.89 1.99 2.15 2.36 2.52 2.46 2.37 2.38 2.45 2.50 2.49 2.45 2.40 2.45 2.38 2.33

GEFSCGP_prec_meanprecacc_312.txt.gz
Total_Precipitation_Accumulation
0.00 0.01 0.05 0.08 0.11 0.14 0.16 0.20 0.23 0.22 0.23 0.30 0.41 0.62 0.83 0.93 1.11 1.25 1.24 1.36 1.75 2.16 2.47 2.74 2.88 3.12 3.44 3.76 4.05 4.37 4.87 5.13 4.98 4.99 4.90 4.74 4.42 4.22 3.84 3.37 3.02 2.96 2.98 3.23
0.01 0.02 0.04 0.05 0.06 0.10 0.13 0.16 0.20 0.23 0.25 0.32 0.37 0.60 0.80 0.82 1.01 1.16 1.27 1.44 1.59 1.80 2.28 2.55 2.57 2.81 3.04 3.57 4.09 4.44 4.49 4.45 4.28 4.52 4.92 5.15 5.06 4.52 3.89 3.51 3.35 2.98 2.92 3.06
0.03 0.05 0.04 0.03 0.04 0.06 0.13 0.17 0.21 0.23 0.26 0.37 0.47 0.93 1.03 0.92 1.00 1.09 1.17 1.34 1.48 1.65 1.84 2.15 2.18 2.27 2.49 3.00 3.54 3.69 3.59 3.54 3.43 3.56 3.97 4.28 4.54 4.29 3.97 3.64 3.36 2.97 2.86 2.85
0.03 0.03 0.03 0.04 0.04 0.05 0.10 0.10 0.13 0.18 0.31 0.52 0.57 1.09 1.29 1.26 1.33 1.16 1.17 1.23 1.49 1.64 1.68 1.84 1.89 1.95 2.01 2.15 2.40 2.61 2.84 2.96 2.97 3.01 3.24 3.47 3.72 3.76 3.70 3.63 3.29 2.92 2.63 2.60
0.03 0.03 0.03 0.06 0.06 0.05 0.08 0.08 0.11 0.17 0.29 0.52 0.54 0.78 1.32 1.52 1.53 1.27 1.19 1.19 1.35 1.36 1.42 1.56 1.65 1.66 1.72 1.89 2.15 2.37 2.66 2.83 2.90 2.88 2.97 3.18 3.50 3.54 3.35 3.22 3.27 3.04 2.76 2.50
0.05 0.05 0.06 0.07 0.06 0.05 0.07 0.09 0.16 0.23 0.35 0.78 0.67 0.77 1.25 1.44 1.30 1.23 1.12 1.05 1.13 1.08 1.21 1.42 1.53 1.59 1.64 1.73 1.98 2.21 2.46 2.47 2.58 2.64 2.64 2.70 2.91 3.06 2.92 2.76 2.77 2.65 2.54 2.43
0.13 0.12 0.10 0.07 0.07 0.07 0.09 0.16 0.56 0.98 1.16 1.12 0.70 0.81 1.30 1.17 1.02 1.02 1.03 1.08 1.11 1.05 1.03 1.22 1.41 1.43 1.57 1.69 1.80 1.94 2.10 2.21 2.23 2.27 2.20 2.17 2.25 2.42 2.41 2.33 2.36 2.28 2.10 1.99
0.23 0.25 0.17 0.09 0.09 0.10 0.15 0.25 0.72 1.04 1.03 1.02 0.86 1.24 1.43 1.01 0.94 0.94 0.87 0.85 0.85 0.80 0.81 0.92 1.08 1.19 1.33 1.49 1.57 1.69 1.82 1.95 2.04 2.08 2.10 2.06 2.03 2.11 2.20 2.29 2.17 2.11 1.88 1.72
0.16 0.17 0.12 0.09 0.08 0.12 0.23 0.31 0.34 0.57 0.69 1.05 1.27 1.50 1.31 1.01 1.05 0.99 0.95 0.86 0.86 0.85 0.84 0.81 0.89 1.01 1.05 1.16 1.26 1.38 1.52 1.69 1.86 1.85 1.98 1.96 1.83 1.92 2.11 2.22 2.14 2.03 2.01 1.88
0.08 0.10 0.12 0.10 0.12 0.16 0.19 0.23 0.31 0.48 0.74 1.06 1.26 1.66 1.86 1.57 1.36 1.11 1.13 1.03 0.96 0.87 0.75 0.74 0.74 0.77 0.77 0.89 1.15 1.29 1.45 1.61 1.66 1.63 1.58 1.51 1.58 1.76 1.92 1.92 1.86 1.99 2.06 2.06
0.08 0.09 0.12 0.15 0.15 0.18 0.20 0.24 0.31 0.40 0.51 0.83 1.26 1.50 1.31 1.33 1.27 1.23 1.10 1.05 0.97 0.86 0.73 0.71 0.81 0.83 0.81 0.90 1.10 1.14 1.20 1.40 1.48 1.46 1.35 1.34 1.41 1.52 1.62 1.65 1.66 1.80 1.89 1.96
0.09 0.10 0.18 0.22 0.19 0.17 0.19 0.22 0.32 0.50 0.55 0.67 1.01 1.26 0.89 1.00 1.02 0.89 0.84 0.84 0.75 0.72 0.66 0.65 0.76 0.91 1.05 1.16 1.11 1.00 1.04 1.09 1.22 1.27 1.26 1.30 1.33 1.32 1.31 1.36 1.47 1.56 1.61 1.66
0.13 0.17 0.32 0.52 0.52 0.31 0.26 0.22 0.26 0.34 0.44 0.54 0.85 1.16 0.95 0.94 1.01 0.93 0.89 0.88 0.77 0.71 0.67 0.70 0.80 0.86 0.90 1.04 1.18 1.02 0.99 1.07 1.18 1.24 1.31 1.41 1.43 1.35 1.29 1.31 1.37 1.37 1.32 1.35
0.12 0.14 0.27 0.52 0.47 0.36 0.32 0.28 0.29 0.35 0.46 0.51 0.61 0.91 1.03 1.02 0.99 0.97 0.94 0.85 0.81 0.75 0.64 0.68 0.82 0.98 0.98 0.97 1.06 1.00 0.97 1.05 1.20 1.43 1.66 1.68 1.60 1.53 1.44 1.33 1.31 1.29 1.23 1.30
0.13 0.12 0.14 0.20 0.26 0.34 0.37 0.30 0.28 0.29 0.33 0.50 0.51 0.68 0.91 0.97 0.90 0.93 0.97 0.76 0.68 0.76 0.71 0.66 0.77 0.96 1.06 1.08 1.09 1.04 1.08 1.14 1.29 1.55 1.71 1.78 1.81 1.73 1.64 1.49 1.38 1.32 1.32 1.29
0.21 0.19 0.20 0.22 0.30 0.36 0.36 0.31 0.25 0.22 0.24 0.32 0.43 0.64 0.73 0.69 0.77 0.81 0.78 0.76 0.76 0.85 0.81 0.75 0.76 0.83 1.00 1.09 1.16 1.19 1.26 1.31 1.38 1.41 1.47 1.63 1.73 1.73 1.66 1.47 1.38 1.41 1.40 1.36
0.35 0.35 0.31 0.34 0.35 0.42 0.46 0.36 0.30 0.27 0.25 0.36 0.56 0.76 0.73 0.71 0.79 0.74 0.68 0.68 0.82 0.87 0.78 0.74 0.77 0.81 0.89 0.93 1.02 1.27 1.29 1.26 1.29 1.37 1.48 1.63 1.67 1.62 1.55 1.39 1.37 1.38 1.37 1.39
0.33 0.42 0.43 0.45 0.59 0.74 0.50 0.31 0.31 0.35 0.38 0.46 0.58 0.62 0.64 0.62 0.69 0.73 0.66 0.63 0.64 0.71 0.69 0.70 0.77 0.83 0.85 0.81 0.81 0.93 1.07 1.19 1.26 1.32 1.41 1.51 1.54 1.59 1.64 1.56 1.45 1.46 1.46 1.42
0.30 0.46 0.52 0.59 0.77 0.65 0.45 0.39 0.41 0.50 0.59 0.61 0.65 0.64 0.65 0.66 0.75 0.86 0.73 0.65 0.60 0.59 0.63 0.74 0.85 0.82 0.81 0.81 0.81 0.91 1.07 1.21 1.35 1.40 1.44 1.46 1.55 1.70 1.73 1.61 1.55 1.58 1.56 1.47
0.37 0.46 0.64 0.72 0.91 0.86 0.67 0.51 0.45 0.59 1.00 0.75 0.70 0.73 0.75 0.79 0.98 1.05 0.79 0.71 0.68 0.69 0.73 0.70 0.69 0.68 0.74 0.86 0.95 1.02 1.19 1.39 1.49 1.50 1.58 1.65 1.69 1.80 1.91 1.93 1.86 1.78 1.74 1.67
0.79 0.76 0.73 0.85 1.00 0.86 0.63 0.52 0.60 1.03 1.29 0.93 0.85 0.83 0.84 0.94 0.92 0.88 0.79 0.70 0.68 0.71 0.73 0.73 0.77 0.79 0.84 0.89 1.07 1.27 1.37 1.46 1.54 1.58 1.61 1.79 1.88 1.99 2.15 2.32 2.23 2.15 2.07 2.03
1.05 1.11 1.08 1.10 1.26 1.25 0.77 0.65 0.96 1.22 1.03 1.02 1.02 0.98 0.99 0.88 0.75 0.74 0.76 0.71 0.66 0.68 0.79 0.86 0.97 1.02 0.95 0.96 1.11 1.29 1.40 1.48 1.63 1.67 1.74 1.79 1.93 2.02 2.18 2.55 2.54 2.56 2.54 2.37
1.16 1.29 1.40 1.39 1.40 1.14 1.00 1.04 1.08 1.15 1.10 1.09 0.95 0.84 0.88 0.85 0.79 0.83 0.90 0.88 0.77 0.73 0.82 0.88 1.03 1.12 1.15 1.21 1.34 1.52 1.58 1.64 1.72 1.86 1.98 2.03 2.10 2.26 2.38 2.53 2.58 2.62 2.58 2.45
1.13 1.04 1.39 1.53 1.42 1.29 1.16 1.06 1.10 1.26 1.18 1.04 0.92 0.88 0.89 0.88 0.80 0.76 0.80 0.85 0.84 0.81 0.89 1.00 1.10 1.28 1.39 1.45 1.57 1.72 1.83 1.92 2.02 2.15 2.26 2.29 2.32 2.34 2.40 2.55 2.57 2.58 2.56 2.43
1.10 1.08 1.41 1.67 1.60 1.58 1.38 1.09 1.01 1.04 1.00 0.90 0.93 0.91 0.90 0.95 0.89 0.79 0.76 0.78 0.86 0.97 1.07 1.14 1.27 1.43 1.49 1.59 1.67 1.79 2.01 2.20 2.27 2.28 2.27 2.26 2.30 2.41 2.50 2.49 2.48 2.53 2.57 2.56
1.30 1.29 1.59 1.90 1.67 1.64 1.53 1.24 1.07 0.95 0.87 0.87 1.01 1.05 0.95 0.95 0.97 0.91 0.90 0.92 0.96 1.04 1.17 1.29 1.40 1.52 1.60 1.75 1.90 2.00 2.17 2.38 2.55 2.50 2.41 2.41 2.48 2.53 2.52 2.49 2.43 2.48 2.41 2.36

GEFSCGP_prec_meanprecacc_318.txt.gz
Total_Precipitation_Accumulation
0.00 0.01 0.05 0.08 0.11 0.14 0.16 0.20 0.23 0.23 0.24 0.31 0.42 0.63 0.83 0.93 1.11 1.25 1.24 1.36 1.76 2.17 2.48 2.75 2.89 3.13 3.45 3.77 4.06 4.38 4.89 5.18 5.05 5.07 4.96 4.79 4.46 4.26 3.86 3.41 3.05 3.00 3.02 3.28
0.01 0.02 0.04 0.05 0.06 0.10 0.14 0.16 0.20 0.23 0.26 0.33 0.38 0.60 0.81 0.82 1.01 1.16 1.27 1.44 1.59 1.80 2.28 2.56 2.57 2.82 3.05 3.58 4.10 4.46 4.51 4.49 4.36 4.58 4.97 5.19 5.11 4.57 3.94 3.54 3.39 3.01 2.96 3.12
0.03 0.05 0.04 0.03 0.04 0.06 0.14 0.17 0.21 0.23 0.27 0.38 0.48 0.93 1.03 0.92 1.00 1.09 1.17 1.34 1.48 1.65 1.84 2.15 2.19 2.28 2.50 3.01 3.55 3.71 3.61 3.57 3.46 3.61 4.02 4.31 4.57 4.33 4.03 3.71 3.44 3.03 2.92 2.93
0.03 0.03 0.03 0.04 0.04 0.05 0.10 0.10 0.13 0.18 0.32 0.53 0.58 1.10 1.29 1.26 1.33 1.16 1.17 1.23 1.49 1.64 1.68 1.84 1.90 1.95 2.01 2.16 2.41 2.63 2.86 2.98 2.99 3.05 3.27 3.49 3.76 3.80 3.76 3.69 3.36 3.01 2.71 2.68
0.03 0.03 0.03 0.06 0.06 0.05 0.08 0.08 0.11 0.17 0.30 0.53 0.55 0.78 1.32 1.52 1.53 1.27 1.19 1.19 1.35 1.36 1.42 1.57 1.66 1.67 1.72 1.90 2.15 2.37 2.67 2.84 2.92 2.90 2.98 3.20 3.52 3.57 3.40 3.27 3.33 3.10 2.81 2.54
0.05 0.05 0.06 0.07 0.06 0.05 0.07 0.09 0.16 0.23 0.36 0.79 0.68 0.77 1.25 1.44 1.30 1.23 1.12 1.05 1.13 1.08 1.21 1.42 1.53 1.59 1.64 1.73 1.98 2.22 2.46 2.48 2.59 2.65 2.65 2.72 2.93 3.10 2.97 2.82 2.83 2.70 2.58 2.46
0.14 0.12 0.10 0.07 0.07 0.07 0.09 0.17 0.57 0.99 1.17 1.13 0.70 0.82 1.30 1.18 1.02 1.02 1.03 1.08 1.11 1.05 1.03 1.22 1.42 1.43 1.57 1.69 1.81 1.95 2.11 2.22 2.24 2.28 2.22 2.18 2.28 2.46 2.46 2.36 2.40 2.31 2.12 2.01
0.23 0.25 0.17 0.10 0.09 0.11 0.15 0.25 0.72 1.05 1.04 1.02 0.87 1.24 1.43 1.01 0.94 0.94 0.87 0.85 0.86 0.80 0.81 0.92 1.08 1.19 1.33 1.49 1.57 1.69 1.83 1.97 2.05 2.10 2.11 2.08 2.06 2.13 2.22 2.32 2.19 2.13 1.90 1.75
0.16 0.18 0.13 0.09 0.08 0.12 0.24 0.31 0.35 0.57 0.70 1.05 1.28 1.51 1.32 1.02 1.05 0.99 0.95 0.86 0.86 0.85 0.84 0.82 0.90 1.01 1.06 1.16 1.27 1.38 1.53 1.70 1.87 1.87 2.00 1.98 1.85 1.93 2.12 2.23 2.15 2.05 2.02 1.89
0.08 0.11 0.13 0.10 0.12 0.16 0.19 0.24 0.32 0.48 0.74 1.07 1.26 1.66 1.87 1.57 1.37 1.11 1.13 1.03 0.96 0.87 0.76 0.74 0.76 0.79 0.78 0.90 1.17 1.30 1.46 1.62 1.68 1.65 1.60 1.52 1.59 1.77 1.93 1.94 1.88 2.00 2.06 2.07
0.08 0.09 0.13 0.16 0.16 0.18 0.21 0.24 0.31 0.40 0.51 0.84 1.27 1.50 1.32 1.33 1.27 1.23 1.11 1.05 0.97 0.86 0.73 0.71 0.82 0.84 0.83 0.91 1.11 1.15 1.22 1.42 1.49 1.47 1.36 1.35 1.42 1.52 1.62 1.66 1.67 1.81 1.89 1.97
0.10 0.11 0.18 0.23 0.19 0.17 0.19 0.23 0.33 0.51 0.56 0.69 1.02 1.26 0.89 1.00 1.02 0.89 0.85 0.85 0.75 0.73 0.67 0.65 0.77 0.93 1.06 1.18 1.13 1.02 1.06 1.10 1.22 1.27 1.27 1.33 1.35 1.32 1.32 1.38 1.49 1.57 1.63 1.67
0.13 0.17 0.32 0.52 0.52 0.32 0.26 0.22 0.26 0.34 0.45 0.55 0.86 1.16 0.95 0.94 1.02 0.93 0.89 0.88 0.78 0.72 0.68 0.71 0.82 0.88 0.92 1.08 1.22 1.04 1.00 1.08 1.19 1.25 1.32 1.42 1.44 1.36 1.31 1.35 1.40 1.39 1.33 1.36
0.12 0.14 0.27 0.53 0.47 0.36 0.32 0.28 0.30 0.36 0.47 0.52 0.61 0.91 1.03 1.02 0.99 0.97 0.95 0.85 0.82 0.76 0.65 0.69 0.84 1.00 1.01 1.00 1.09 1.01 0.98 1.05 1.20 1.43 1.66 1.68 1.61 1.54 1.46 1.34 1.32 1.30 1.24 1.31
0.13 0.12 0.14 0.20 0.26 0.34 0.37 0.30 0.28 0.29 0.33 0.50 0.51 0.68 0.91 0.98 0.90 0.93 0.98 0.77 0.69 0.76 0.73 0.67 0.79 0.98 1.07 1.10 1.10 1.04 1.08 1.14 1.30 1.55 1.71 1.79 1.82 1.74 1.65 1.51 1.38 1.32 1.33 1.31
0.21 0.19 0.20 0.22 0.30 0.36 0.36 0.31 0.25 0.23 0.24 0.32 0.43 0.64 0.73 0.69 0.77 0.81 0.79 0.77 0.78 0.86 0.83 0.76 0.78 0.85 1.02 1.11 1.17 1.19 1.26 1.31 1.39 1.42 1.48 1.64 1.74 1.74 1.67 1.48 1.39 1.43 1.41 1.38
0.35 0.35 0.31 0.34 0.35 0.42 0.46 0.36 0.30 0.27 0.25 0.36 0.57 0.76 0.73 0.71 0.79 0.75 0.69 0.69 0.82 0.88 0.79 0.75 0.79 0.83 0.90 0.95 1.04 1.28 1.30 1.27 1.29 1.37 1.49 1.65 1.68 1.64 1.57 1.41 1.39 1.41 1.40 1.41
0.33 0.42 0.43 0.45 0.59 0.74 0.51 0.31 0.31 0.35 0.38 0.46 0.58 0.62 0.64 0.63 0.69 0.73 0.66 0.63 0.65 0.71 0.69 0.71 0.78 0.85 0.86 0.83 0.82 0.94 1.08 1.20 1.27 1.33 1.42 1.53 1.56 1.61 1.66 1.59 1.48 1.49 1.49 1.44
0.31 0.46 0.52 0.59 0.77 0.66 0.45 0.39 0.42 0.50 0.59 0.61 0.65 0.65 0.65 0.67 0.75 0.86 0.73 0.65 0.60 0.59 0.64 0.75 0.87 0.85 0.83 0.82 0.83 0.92 1.08 1.22 1.37 1.42 1.45 1.46 1.56 1.71 1.75 1.63 1.58 1.61 1.59 1.49
0.37 0.46 0.65 0.73 0.92 0.87 0.67 0.51 0.45 0.59 1.01 0.76 0.71 0.73 0.75 0.79 0.99 1.06 0.80 0.71 0.69 0.70 0.74 0.71 0.71 0.71 0.76 0.87 0.96 1.03 1.20 1.41 1.51 1.53 1.60 1.66 1.69 1.81 1.93 1.95 1.89 1.80 1.76 1.69
0.80 0.77 0.74 0.86 1.00 0.86 0.63 0.52 0.60 1.04 1.29 0.94 0.87 0.85 0.85 0.95 0.93 0.88 0.79 0.70 0.69 0.72 0.75 0.75 0.80 0.81 0.86 0.91 1.08 1.28 1.39 1.48 1.55 1.60 1.63 1.81 1.90 2.01 2.17 2.34 2.25 2.17 2.09 2.05
1.05 1.11 1.08 1.11 1.27 1.26 0.77 0.65 0.96 1.22 1.04 1.05 1.06 1.00 1.00 0.89 0.75 0.74 0.77 0.72 0.67 0.69 0.81 0.89 1.00 1.03 0.96 0.98 1.12 1.30 1.41 1.49 1.64 1.68 1.75 1.81 1.95 2.04 2.19 2.56 2.55 2.57 2.57 2.40
1.17 1.30 1.41 1.40 1.41 1.15 1.00 1.05 1.09 1.15 1.12 1.13 1.00 0.87 0.89 0.86 0.81 0.84 0.92 0.90 0.79 0.74 0.84 0.90 1.04 1.12 1.15 1.22 1.36 1.54 1.59 1.65 1.72 1.87 1.99 2.03 2.11 2.28 2.39 2.55 2.60 2.64 2.61 2.48
1.13 1.04 1.39 1.53 1.42 1.29 1.17 1.06 1.11 1.27 1.21 1.09 0.94 0.89 0.90 0.90 0.82 0.77 0.81 0.87 0.86 0.82 0.91 1.01 1.10 1.29 1.40 1.46 1.59 1.74 1.84 1.93 2.03 2.16 2.26 2.30 2.33 2.35 2.41 2.57 2.59 2.60 2.58 2.45
1.10 1.09 1.42 1.68 1.61 1.59 1.39 1.10 1.02 1.06 1.03 0.93 0.95 0.92 0.91 0.96 0.90 0.80 0.77 0.79 0.87 0.99 1.08 1.15 1.28 1.43 1.49 1.59 1.69 1.81 2.02 2.21 2.28 2.28 2.28 2.27 2.30 2.42 2.51 2.50 2.50 2.55 2.59 2.57
1.30 1.30 1.60 1.91 1.68 1.64 1.54 1.25 1.09 0.97 0.91 0.91 1.04 1.06 0.96 0.96 0.98 0.93 0.92 0.93 0.98 1.06 1.18 1.30 1.41 1.52 1.60 1.76 1.90 2.00 2.18 2.40 2.57 2.51 2.42 2.42 2.49 2.54 2.53 2.50 2.45 2.49 2.42 2.38

GEFSCGP_prec_meanprecacc_324.txt.gz
Total_Precipitation_Accumulation
0.01 0.01 0.05 0.09 0.12 0.15 0.16 0.20 0.23 0.25 0.26 0.32 0.44 0.65 0.85 0.94 1.11 1.25 1.25 1.37 1.77 2.18 2.49 2.77 2.92 3.14 3.46 3.78 4.08 4.41 4.92 5.22 5.12 5.15 5.05 4.88 4.54 4.33 3.92 3.46 3.10 3.04 3.05 3.31
0.01 0.03 0.04 0.06 0.07 0.10 0.14 0.16 0.21 0.24 0.27 0.34 0.39 0.61 0.82 0.85 1.04 1.16 1.27 1.44 1.60 1.81 2.29 2.57 2.59 2.83 3.06 3.59 4.12 4.47 4.53 4.52 4.41 4.64 5.04 5.25 5.17 4.63 3.99 3.59 3.45 3.07 3.00 3.15
0.03 0.05 0.04 0.03 0.04 0.06 0.14 0.17 0.21 0.25 0.29 0.40 0.50 0.94 1.05 0.96 1.02 1.09 1.17 1.34 1.48 1.65 1.84 2.16 2.19 2.29 2.51 3.03 3.57 3.73 3.63 3.60 3.49 3.64 4.05 4.35 4.64 4.42 4.12 3.80 3.53 3.11 2.97 2.97
0.03 0.03 0.03 0.04 0.04 0.05 0.10 0.11 0.14 0.21 0.34 0.57 0.60 1.12 1.32 1.30 1.34 1.16 1.17 1.23 1.49 1.64 1.68 1.84 1.90 1.96 2.02 2.17 2.43 2.64 2.87 3.00 3.01 3.06 3.29 3.53 3.82 3.90 3.90 3.85 3.50 3.11 2.80 2.74
0.03 0.03 0.03 0.06 0.06 0.05 0.08 0.08 0.11 0.18 0.32 0.58 0.59 0.84 1.37 1.56 1.55 1.28 1.20 1.19 1.35 1.36 1.43 1.57 1.66 1.67 1.73 1.91 2.16 2.38 2.68 2.86 2.94 2.91 3.00 3.22 3.56 3.62 3.45 3.33 3.39 3.16 2.86 2.58
0.06 0.05 0.06 0.07 0.06 0.05 0.07 0.09 0.16 0.25 0.40 0.85 0.71 0.81 1.27 1.46 1.32 1.27 1.13 1.05 1.14 1.09 1.22 1.43 1.53 1.59 1.64 1.74 1.99 2.23 2.48 2.50 2.61 2.67 2.67 2.75 2.98 3.14 3.01 2.86 2.88 2.74 2.61 2.50
0.14 0.13 0.10 0.07 0.07 0.07 0.09 0.17 0.59 1.02 1.21 1.16 0.72 0.84 1.33 1.19 1.03 1.02 1.03 1.08 1.12 1.05 1.04 1.23 1.42 1.43 1.58 1.70 1.82 1.96 2.12 2.24 2.26 2.30 2.25 2.23 2.33 2.49 2.49 2.39 2.44 2.36 2.15 2.05
0.24 0.26 0.17 0.10 0.09 0.11 0.15 0.26 0.76 1.08 1.06 1.04 0.88 1.26 1.47 1.04 0.94 0.94 0.87 0.85 0.86 0.81 0.81 0.93 1.09 1.19 1.33 1.50 1.58 1.70 1.84 1.98 2.07 2.12 2.15 2.13 2.10 2.17 2.26 2.36 2.22 2.17 1.92 1.77
0.17 0.18 0.13 0.09 0.08 0.12 0.24 0.32 0.37 0.59 0.71 1.07 1.30 1.53 1.36 1.06 1.06 0.99 0.95 0.87 0.86 0.85 0.85 0.83 0.91 1.01 1.06 1.17 1.28 1.39 1.54 1.71 1.89 1.89 2.02 2.00 1.88 1.97 2.15 2.27 2.19 2.08 2.05 1.91
0.09 0.12 0.14 0.10 0.12 0.16 0.19 0.25 0.34 0.51 0.78 1.09 1.29 1.69 1.90 1.59 1.38 1.12 1.13 1.04 0.97 0.88 0.77 0.76 0.77 0.80 0.79 0.92 1.19 1.31 1.48 1.64 1.69 1.66 1.61 1.54 1.61 1.80 1.96 1.96 1.90 2.03 2.10 2.11
0.08 0.10 0.14 0.16 0.16 0.18 0.21 0.25 0.33 0.43 0.55 0.87 1.31 1.54 1.35 1.35 1.29 1.24 1.11 1.06 0.99 0.88 0.74 0.73 0.83 0.85 0.83 0.92 1.13 1.17 1.25 1.44 1.51 1.48 1.38 1.37 1.44 1.54 1.64 1.68 1.69 1.83 1.91 1.99
0.10 0.11 0.19 0.23 0.19 0.17 0.19 0.23 0.34 0.53 0.59 0.73 1.07 1.30 0.90 1.01 1.02 0.90 0.85 0.86 0.76 0.74 0.68 0.66 0.78 0.93 1.07 1.19 1.14 1.04 1.07 1.11 1.23 1.28 1.29 1.34 1.36 1.34 1.34 1.40 1.51 1.59 1.64 1.69
0.13 0.18 0.33 0.54 0.52 0.32 0.26 0.22 0.27 0.36 0.47 0.59 0.91 1.21 0.97 0.95 1.02 0.94 0.90 0.90 0.80 0.73 0.69 0.72 0.83 0.90 0.95 1.10 1.24 1.06 1.01 1.09 1.20 1.26 1.34 1.44 1.46 1.39 1.34 1.38 1.42 1.41 1.34 1.37
0.12 0.15 0.29 0.55 0.48 0.36 0.32 0.28 0.30 0.37 0.48 0.55 0.66 0.95 1.05 1.04 1.00 0.98 0.95 0.86 0.83 0.77 0.66 0.70 0.86 1.03 1.04 1.04 1.12 1.02 0.98 1.06 1.21 1.44 1.67 1.70 1.63 1.56 1.48 1.37 1.35 1.32 1.26 1.33
0.13 0.13 0.15 0.20 0.26 0.34 0.38 0.30 0.29 0.32 0.37 0.54 0.54 0.70 0.93 0.99 0.91 0.94 0.98 0.77 0.69 0.77 0.74 0.69 0.80 1.00 1.11 1.13 1.12 1.05 1.08 1.15 1.30 1.56 1.72 1.80 1.83 1.75 1.66 1.52 1.40 1.34 1.35 1.32
0.21 0.19 0.20 0.22 0.30 0.37 0.39 0.32 0.25 0.24 0.25 0.34 0.44 0.66 0.76 0.71 0.78 0.82 0.79 0.78 0.78 0.87 0.84 0.78 0.80 0.87 1.04 1.13 1.18 1.20 1.27 1.32 1.39 1.43 1.49 1.64 1.75 1.76 1.69 1.50 1.41 1.44 1.43 1.39
0.35 0.35 0.33 0.35 0.36 0.44 0.48 0.36 0.30 0.27 0.26 0.37 0.58 0.78 0.76 0.74 0.81 0.76 0.69 0.69 0.83 0.89 0.81 0.77 0.81 0.86 0.93 0.96 1.05 1.29 1.31 1.28 1.30 1.39 1.50 1.66 1.70 1.66 1.59 1.44 1.43 1.44 1.42 1.43
0.33 0.42 0.43 0.47 0.62 0.77 0.53 0.32 0.32 0.35 0.38 0.47 0.59 0.66 0.68 0.67 0.73 0.74 0.67 0.64 0.66 0.72 0.70 0.72 0.79 0.87 0.88 0.84 0.84 0.94 1.09 1.21 1.28 1.35 1.44 1.55 1.58 1.63 1.69 1.62 1.52 1.54 1.55 1.48
0.31 0.46 0.52 0.61 0.79 0.67 0.46 0.40 0.42 0.51 0.59 0.61 0.66 0.69 0.69 0.69 0.80 0.89 0.74 0.65 0.60 0.59 0.64 0.75 0.87 0.86 0.84 0.84 0.84 0.93 1.08 1.24 1.39 1.45 1.47 1.48 1.57 1.73 1.77 1.65 1.61 1.65 1.64 1.53
0.37 0.47 0.65 0.74 0.93 0.88 0.68 0.51 0.46 0.60 1.02 0.76 0.72 0.75 0.77 0.81 1.02 1.09 0.80 0.71 0.69 0.70 0.74 0.72 0.71 0.72 0.78 0.90 0.98 1.05 1.21 1.43 1.53 1.54 1.62 1.67 1.70 1.81 1.94 1.96 1.90 1.82 1.79 1.71
0.80 0.78 0.75 0.87 1.01 0.86 0.64 0.53 0.60 1.05 1.31 0.95 0.87 0.86 0.86 0.96 0.94 0.90 0.80 0.71 0.71 0.73 0.76 0.76 0.81 0.83 0.88 0.93 1.10 1.30 1.41 1.50 1.57 1.61 1.65 1.83 1.91 2.02 2.19 2.35 2.26 2.20 2.12 2.08
1.08 1.15 1.10 1.12 1.28 1.26 0.78 0.65 0.97 1.24 1.04 1.05 1.07 1.01 1.01 0.90 0.76 0.75 0.78 0.73 0.68 0.70 0.82 0.90 1.02 1.04 0.98 0.99 1.13 1.32 1.44 1.50 1.65 1.69 1.77 1.83 1.96 2.06 2.21 2.57 2.57 2.60 2.61 2.44
1.19 1.32 1.44 1.41 1.42 1.16 1.00 1.05 1.09 1.16 1.12 1.13 1.00 0.88 0.90 0.87 0.82 0.85 0.93 0.91 0.80 0.76 0.87 0.94 1.07 1.14 1.16 1.23 1.37 1.55 1.61 1.67 1.74 1.89 2.02 2.07 2.14 2.30 2.42 2.57 2.63 2.68 2.65 2.52
1.15 1.05 1.40 1.55 1.43 1.30 1.17 1.07 1.11 1.27 1.21 1.09 0.95 0.90 0.92 0.92 0.84 0.78 0.82 0.88 0.87 0.83 0.92 1.03 1.13 1.31 1.42 1.49 1.60 1.75 1.86 1.94 2.05 2.17 2.28 2.32 2.36 2.38 2.44 2.60 2.62 2.63 2.61 2.48
1.11 1.09 1.43 1.69 1.62 1.59 1.40 1.11 1.03 1.07 1.04 0.95 0.96 0.93 0.92 0.97 0.91 0.80 0.78 0.80 0.88 1.00 1.09 1.16 1.30 1.46 1.52 1.62 1.71 1.82 2.03 2.22 2.30 2.30 2.29 2.29 2.32 2.44 2.53 2.53 2.52 2.57 2.61 2.60
1.31 1.30 1.61 1.93 1.69 1.65 1.56 1.26 1.10 0.99 0.93 0.92 1.05 1.07 0.98 0.97 0.99 0.94 0.93 0.95 1.00 1.08 1.21 1.33 1.45 1.56 1.64 1.79 1.93 2.02 2.19 2.41 2.59 2.53 2.43 2.44 2.50 2.56 2.55 2.52 2.47 2.50 2.43 2.39

GEFSCGP_prec_meanprecacc_330.txt.gz
Total_Precipitation_Accumulation
0.01 0.02 0.05 0.10 0.13 0.16 0.18 0.21 0.24 0.25 0.26 0.33 0.47 0.68 0.90 1.00 1.21 1.31 1.30 1.42 1.80 2.20 2.50 2.77 2.92 3.15 3.47 3.79 4.09 4.42 4.93 5.24 5.15 5.20 5.08 4.89 4.56 4.35 3.93 3.47 3.12 3.08 3.09 3.35
0.01 0.03 0.05 0.06 0.07 0.10 0.15 0.17 0.21 0.25 0.28 0.35 0.41 0.64 0.87 0.90 1.10 1.22 1.32 1.49 1.63 1.83 2.30 2.57 2.59 2.83 3.06 3.60 4.12 4.49 4.54 4.54 4.44 4.69 5.07 5.27 5.18 4.64 4.00 3.61 3.48 3.09 3.03 3.21
0.03 0.06 0.04 0.03 0.04 0.06 0.15 0.18 0.22 0.25 0.30 0.41 0.51 0.96 1.09 1.01 1.07 1.13 1.21 1.39 1.51 1.68 1.86 2.17 2.20 2.29 2.51 3.03 3.57 3.73 3.64 3.62 3.53 3.67 4.06 4.37 4.66 4.43 4.13 3.81 3.55 3.14 3.01 3.03
0.03 0.04 0.04 0.04 0.04 0.05 0.12 0.12 0.15 0.21 0.35 0.58 0.62 1.15 1.38 1.38 1.38 1.19 1.22 1.28 1.53 1.67 1.70 1.86 1.92 1.97 2.03 2.18 2.43 2.65 2.88 3.03 3.05 3.08 3.29 3.53 3.83 3.91 3.91 3.86 3.52 3.14 2.84 2.81
0.04 0.03 0.04 0.07 0.06 0.05 0.08 0.09 0.12 0.19 0.33 0.60 0.61 0.86 1.42 1.61 1.61 1.33 1.24 1.23 1.39 1.39 1.46 1.60 1.71 1.73 1.77 1.92 2.17 2.39 2.71 2.89 2.96 2.92 3.00 3.23 3.57 3.62 3.46 3.34 3.41 3.19 2.90 2.62
0.06 0.05 0.06 0.07 0.06 0.05 0.07 0.09 0.17 0.25 0.42 0.87 0.72 0.82 1.31 1.50 1.36 1.32 1.17 1.09 1.16 1.12 1.27 1.48 1.57 1.63 1.69 1.78 2.01 2.26 2.51 2.52 2.62 2.68 2.69 2.76 2.98 3.15 3.02 2.88 2.91 2.76 2.63 2.51
0.15 0.13 0.10 0.07 0.07 0.07 0.10 0.18 0.60 1.04 1.23 1.18 0.73 0.87 1.37 1.24 1.11 1.11 1.11 1.16 1.17 1.10 1.10 1.27 1.45 1.46 1.60 1.72 1.84 1.99 2.14 2.25 2.28 2.32 2.27 2.24 2.34 2.50 2.51 2.41 2.46 2.38 2.17 2.07
0.24 0.27 0.18 0.10 0.09 0.11 0.15 0.26 0.77 1.10 1.10 1.07 0.90 1.30 1.51 1.10 1.03 1.03 0.95 0.92 0.90 0.84 0.83 0.95 1.12 1.22 1.36 1.53 1.60 1.72 1.85 2.00 2.09 2.14 2.16 2.15 2.11 2.18 2.27 2.37 2.22 2.17 1.93 1.79
0.18 0.19 0.13 0.10 0.08 0.12 0.25 0.32 0.37 0.61 0.74 1.11 1.32 1.56 1.41 1.12 1.12 1.04 0.99 0.91 0.90 0.89 0.87 0.86 0.96 1.06 1.11 1.21 1.33 1.44 1.59 1.77 1.95 1.94 2.06 2.03 1.90 1.98 2.16 2.28 2.19 2.09 2.06 1.93
0.09 0.13 0.14 0.10 0.12 0.17 0.20 0.26 0.35 0.52 0.82 1.15 1.33 1.74 1.95 1.64 1.43 1.16 1.17 1.08 1.00 0.92 0.80 0.79 0.81 0.84 0.84 0.98 1.27 1.38 1.55 1.74 1.82 1.76 1.68 1.59 1.64 1.82 1.97 1.98 1.92 2.05 2.12 2.13
0.09 0.11 0.14 0.16 0.16 0.19 0.21 0.26 0.34 0.44 0.57 0.92 1.37 1.59 1.39 1.39 1.33 1.29 1.15 1.09 1.02 0.92 0.81 0.82 0.88 0.88 0.87 0.97 1.21 1.24 1.31 1.52 1.60 1.57 1.45 1.42 1.48 1.57 1.66 1.70 1.71 1.85 1.93 2.01
0.10 0.12 0.20 0.23 0.19 0.17 0.20 0.24 0.35 0.54 0.59 0.75 1.11 1.37 0.94 1.03 1.06 0.94 0.88 0.88 0.79 0.79 0.77 0.77 0.83 0.96 1.10 1.22 1.18 1.08 1.11 1.15 1.27 1.32 1.32 1.36 1.39 1.37 1.36 1.42 1.53 1.61 1.66 1.71
0.13 0.18 0.34 0.54 0.53 0.32 0.26 0.23 0.28 0.36 0.47 0.60 0.93 1.26 1.00 0.97 1.05 0.97 0.92 0.91 0.83 0.79 0.81 0.82 0.88 0.93 0.97 1.12 1.26 1.08 1.04 1.11 1.22 1.27 1.35 1.45 1.47 1.40 1.35 1.40 1.44 1.43 1.37 1.39
0.13 0.15 0.29 0.55 0.49 0.36 0.32 0.29 0.31 0.37 0.49 0.55 0.68 0.98 1.08 1.07 1.04 1.00 0.99 0.90 0.91 0.87 0.72 0.75 0.89 1.04 1.05 1.05 1.13 1.03 1.00 1.07 1.22 1.45 1.68 1.70 1.63 1.56 1.49 1.39 1.36 1.34 1.29 1.36
0.13 0.13 0.15 0.20 0.27 0.35 0.39 0.30 0.29 0.33 0.40 0.56 0.56 0.72 0.96 1.03 0.96 1.02 1.06 0.88 0.79 0.85 0.80 0.72 0.82 1.01 1.11 1.13 1.13 1.07 1.09 1.16 1.32 1.57 1.73 1.81 1.84 1.76 1.68 1.54 1.41 1.36 1.37 1.34
0.21 0.20 0.21 0.23 0.31 0.38 0.41 0.33 0.26 0.26 0.28 0.35 0.45 0.67 0.77 0.74 0.81 0.89 0.89 0.88 0.90 0.96 0.90 0.82 0.82 0.89 1.05 1.14 1.20 1.22 1.28 1.34 1.42 1.45 1.51 1.66 1.77 1.78 1.70 1.51 1.42 1.46 1.45 1.42
0.35 0.36 0.34 0.37 0.37 0.45 0.50 0.39 0.35 0.30 0.27 0.38 0.59 0.81 0.78 0.75 0.82 0.79 0.81 0.79 0.93 0.98 0.86 0.81 0.84 0.88 0.95 0.98 1.07 1.31 1.33 1.30 1.33 1.42 1.52 1.67 1.71 1.68 1.61 1.46 1.45 1.47 1.45 1.47
0.34 0.43 0.46 0.49 0.64 0.77 0.54 0.36 0.37 0.37 0.40 0.49 0.61 0.68 0.69 0.68 0.74 0.76 0.74 0.74 0.72 0.77 0.73 0.75 0.82 0.90 0.91 0.88 0.87 0.97 1.11 1.23 1.31 1.38 1.46 1.57 1.60 1.65 1.70 1.64 1.55 1.57 1.58 1.52
0.32 0.47 0.54 0.62 0.81 0.69 0.48 0.42 0.44 0.52 0.60 0.62 0.68 0.71 0.70 0.70 0.83 0.93 0.77 0.68 0.64 0.64 0.70 0.82 0.93 0.91 0.89 0.89 0.88 0.97 1.12 1.26 1.41 1.47 1.51 1.52 1.60 1.75 1.78 1.67 1.63 1.67 1.66 1.55
0.38 0.47 0.66 0.75 0.95 0.89 0.69 0.53 0.46 0.60 1.02 0.77 0.72 0.76 0.78 0.82 1.04 1.14 0.85 0.74 0.73 0.75 0.80 0.77 0.77 0.77 0.81 0.92 1.01 1.08 1.25 1.46 1.56 1.57 1.64 1.70 1.73 1.84 1.96 1.98 1.92 1.84 1.81 1.73
0.81 0.78 0.76 0.88 1.02 0.87 0.65 0.54 0.61 1.06 1.32 0.96 0.88 0.87 0.87 0.97 0.95 0.91 0.82 0.74 0.74 0.79 0.84 0.84 0.88 0.89 0.93 0.97 1.13 1.33 1.45 1.54 1.60 1.65 1.68 1.85 1.94 2.05 2.21 2.38 2.29 2.23 2.14 2.10
1.09 1.16 1.12 1.14 1.30 1.29 0.79 0.66 0.98 1.25 1.05 1.06 1.08 1.02 1.02 0.91 0.77 0.76 0.78 0.74 0.70 0.72 0.86 0.96 1.09 1.13 1.06 1.04 1.16 1.35 1.47 1.54 1.69 1.73 1.81 1.86 2.00 2.08 2.24 2.60 2.60 2.63 2.63 2.46
1.19 1.33 1.46 1.44 1.44 1.17 1.01 1.06 1.10 1.17 1.13 1.14 1.02 0.90 0.92 0.88 0.83 0.86 0.94 0.91 0.81 0.77 0.88 0.96 1.12 1.21 1.23 1.28 1.41 1.59 1.65 1.70 1.77 1.92 2.05 2.10 2.17 2.33 2.45 2.61 2.66 2.71 2.68 2.54
1.16 1.06 1.42 1.59 1.46 1.32 1.19 1.08 1.12 1.28 1.22 1.10 0.96 0.91 0.93 0.93 0.86 0.84 0.86 0.90 0.87 0.84 0.93 1.06 1.17 1.37 1.49 1.55 1.68 1.82 1.92 1.98 2.07 2.20 2.30 2.34 2.38 2.40 2.47 2.64 2.66 2.67 2.64 2.51
1.12 1.11 1.44 1.72 1.64 1.61 1.42 1.13 1.05 1.08 1.05 0.96 0.97 0.94 0.94 0.98 0.92 0.84 0.81 0.82 0.89 1.01 1.12 1.21 1.36 1.52 1.58 1.69 1.79 1.90 2.10 2.27 2.33 2.32 2.31 2.30 2.33 2.46 2.55 2.55 2.55 2.60 2.64 2.63
1.32 1.32 1.63 1.94 1.71 1.68 1.60 1.31 1.12 1.01 0.94 0.93 1.06 1.09 0.99 0.99 1.01 0.96 0.95 0.97 1.02 1.11 1.25 1.37 1.50 1.65 1.74 1.88 2.00 2.09 2.25 2.46 2.62 2.55 2.44 2.45 2.51 2.56 2.56 2.53 2.48 2.52 2.45 2.41

GEFSCGP_prec_meanprecacc_336.txt.gz
Total_Precipitation_Accumulation
0.01 0.03 0.07 0.11 0.13 0.16 0.18 0.21 0.24 0.25 0.26 0.33 0.47 0.68 0.90 1.01 1.22 1.33 1.32 1.44 1.82 2.22 2.51 2.79 2.93 3.16 3.49 3.81 4.11 4.44 4.94 5.26 5.18 5.22 5.10 4.91 4.58 4.36 3.95 3.50 3.15 3.10 3.12 3.38
0.02 0.04 0.05 0.07 0.07 0.10 0.15 0.17 0.21 0.25 0.28 0.35 0.41 0.64 0.87 0.90 1.11 1.24 1.34 1.51 1.65 1.85 2.31 2.58 2.60 2.84 3.08 3.62 4.15 4.51 4.55 4.56 4.47 4.71 5.09 5.29 5.21 4.66 4.02 3.63 3.50 3.11 3.05 3.23
0.04 0.06 0.04 0.04 0.04 0.07 0.15 0.18 0.22 0.25 0.30 0.41 0.52 0.97 1.09 1.01 1.08 1.14 1.23 1.41 1.53 1.69 1.87 2.18 2.21 2.30 2.53 3.06 3.60 3.76 3.66 3.64 3.56 3.70 4.10 4.40 4.70 4.46 4.15 3.83 3.57 3.15 3.02 3.05
0.03 0.04 0.04 0.04 0.04 0.05 0.12 0.12 0.15 0.21 0.35 0.58 0.62 1.15 1.39 1.38 1.39 1.20 1.23 1.29 1.55 1.69 1.72 1.87 1.93 1.98 2.05 2.21 2.45 2.67 2.90 3.05 3.08 3.12 3.32 3.56 3.86 3.94 3.93 3.88 3.54 3.15 2.85 2.83
0.04 0.03 0.04 0.07 0.06 0.05 0.08 0.09 0.12 0.19 0.33 0.60 0.61 0.86 1.42 1.61 1.61 1.34 1.25 1.24 1.40 1.40 1.48 1.62 1.73 1.75 1.80 1.95 2.20 2.42 2.73 2.92 2.99 2.95 3.02 3.25 3.59 3.65 3.48 3.37 3.43 3.21 2.91 2.64
0.07 0.05 0.06 0.07 0.06 0.05 0.07 0.10 0.17 0.25 0.42 0.87 0.72 0.82 1.31 1.50 1.37 1.33 1.18 1.10 1.18 1.13 1.28 1.49 1.59 1.66 1.74 1.82 2.05 2.29 2.53 2.55 2.66 2.72 2.72 2.78 3.00 3.16 3.04 2.90 2.92 2.78 2.65 2.54
0.15 0.13 0.10 0.07 0.08 0.07 0.10 0.18 0.60 1.04 1.23 1.18 0.74 0.87 1.38 1.24 1.11 1.11 1.11 1.18 1.18 1.12 1.13 1.29 1.46 1.50 1.65 1.76 1.88 2.03 2.17 2.29 2.32 2.37 2.30 2.26 2.35 2.51 2.52 2.42 2.47 2.39 2.19 2.09
0.25 0.27 0.18 0.10 0.09 0.12 0.16 0.27 0.77 1.10 1.10 1.07 0.90 1.30 1.51 1.10 1.04 1.03 0.96 0.94 0.92 0.88 0.85 0.97 1.15 1.28 1.40 1.56 1.65 1.77 1.90 2.07 2.17 2.21 2.22 2.19 2.15 2.21 2.30 2.40 2.24 2.19 1.94 1.81
0.18 0.19 0.14 0.10 0.09 0.13 0.25 0.32 0.37 0.61 0.75 1.11 1.33 1.57 1.41 1.12 1.12 1.04 1.01 0.92 0.92 0.91 0.89 0.89 1.01 1.12 1.15 1.26 1.38 1.51 1.65 1.84 2.04 2.03 2.17 2.14 1.97 2.04 2.21 2.32 2.22 2.11 2.09 1.96
0.10 0.13 0.14 0.10 0.12 0.17 0.20 0.26 0.35 0.53 0.82 1.16 1.34 1.75 1.96 1.64 1.44 1.17 1.18 1.09 1.02 0.93 0.83 0.84 0.87 0.90 0.89 1.03 1.34 1.46 1.60 1.78 1.90 1.87 1.79 1.69 1.74 1.89 2.03 2.02 1.96 2.08 2.16 2.17
0.09 0.11 0.14 0.16 0.16 0.19 0.22 0.26 0.35 0.45 0.58 0.93 1.38 1.60 1.39 1.39 1.34 1.30 1.17 1.10 1.03 0.95 0.84 0.86 0.94 0.94 0.93 1.04 1.30 1.31 1.37 1.57 1.68 1.66 1.52 1.50 1.56 1.65 1.72 1.74 1.74 1.89 1.97 2.05
0.10 0.13 0.20 0.23 0.19 0.17 0.20 0.24 0.35 0.54 0.59 0.75 1.12 1.37 0.94 1.04 1.08 0.96 0.90 0.89 0.81 0.81 0.79 0.81 0.87 1.00 1.14 1.26 1.22 1.12 1.16 1.21 1.34 1.37 1.36 1.39 1.43 1.41 1.39 1.44 1.55 1.64 1.69 1.74
0.14 0.18 0.34 0.54 0.53 0.32 0.26 0.23 0.28 0.37 0.47 0.60 0.93 1.26 1.00 0.98 1.08 1.00 0.94 0.92 0.84 0.80 0.82 0.84 0.90 0.94 0.99 1.14 1.28 1.10 1.07 1.14 1.25 1.31 1.37 1.46 1.50 1.43 1.38 1.43 1.47 1.46 1.40 1.42
0.13 0.15 0.29 0.55 0.49 0.37 0.32 0.29 0.31 0.38 0.49 0.55 0.68 0.98 1.08 1.07 1.05 1.03 1.01 0.91 0.92 0.88 0.74 0.77 0.90 1.05 1.07 1.07 1.14 1.05 1.02 1.10 1.24 1.46 1.69 1.72 1.65 1.59 1.52 1.42 1.41 1.39 1.32 1.39
0.14 0.14 0.15 0.20 0.27 0.35 0.39 0.30 0.29 0.33 0.40 0.56 0.56 0.72 0.96 1.04 0.97 1.03 1.08 0.89 0.80 0.86 0.82 0.73 0.83 1.02 1.13 1.15 1.15 1.09 1.12 1.18 1.33 1.59 1.75 1.83 1.87 1.80 1.72 1.57 1.44 1.40 1.41 1.38
0.21 0.20 0.21 0.23 0.31 0.38 0.41 0.33 0.26 0.26 0.29 0.35 0.45 0.68 0.78 0.75 0.82 0.90 0.91 0.90 0.92 0.98 0.92 0.84 0.84 0.90 1.06 1.16 1.22 1.25 1.33 1.39 1.45 1.48 1.54 1.69 1.80 1.81 1.74 1.55 1.45 1.49 1.49 1.46
0.36 0.36 0.34 0.37 0.37 0.46 0.51 0.39 0.36 0.31 0.28 0.38 0.60 0.82 0.79 0.76 0.84 0.81 0.83 0.81 0.94 0.99 0.88 0.83 0.86 0.91 0.97 1.00 1.10 1.36 1.38 1.36 1.38 1.45 1.55 1.70 1.74 1.71 1.64 1.49 1.47 1.50 1.48 1.51
0.34 0.43 0.46 0.49 0.64 0.78 0.55 0.36 0.37 0.37 0.40 0.49 0.61 0.69 0.70 0.69 0.75 0.78 0.75 0.74 0.72 0.77 0.74 0.76 0.84 0.92 0.93 0.91 0.92 1.04 1.19 1.31 1.38 1.43 1.50 1.60 1.62 1.68 1.73 1.66 1.57 1.60 1.62 1.55
0.32 0.47 0.54 0.63 0.81 0.69 0.48 0.42 0.44 0.52 0.60 0.62 0.68 0.71 0.71 0.71 0.84 0.94 0.77 0.69 0.65 0.65 0.71 0.82 0.94 0.92 0.91 0.90 0.92 1.03 1.17 1.31 1.46 1.51 1.55 1.55 1.64 1.78 1.81 1.69 1.65 1.70 1.69 1.58
0.38 0.48 0.67 0.76 0.96 0.89 0.69 0.53 0.47 0.61 1.03 0.77 0.72 0.76 0.78 0.82 1.05 1.15 0.87 0.75 0.74 0.77 0.81 0.78 0.77 0.78 0.82 0.94 1.03 1.09 1.26 1.48 1.58 1.59 1.68 1.74 1.78 1.89 1.99 2.00 1.93 1.86 1.83 1.76
0.81 0.79 0.76 0.89 1.03 0.88 0.65 0.54 0.62 1.07 1.32 0.96 0.89 0.87 0.87 0.98 0.95 0.92 0.84 0.76 0.76 0.81 0.86 0.86 0.89 0.90 0.95 0.98 1.14 1.35 1.47 1.56 1.63 1.68 1.72 1.90 1.99 2.09 2.25 2.41 2.31 2.24 2.17 2.14
1.09 1.16 1.12 1.14 1.30 1.29 0.79 0.66 0.98 1.25 1.05 1.07 1.09 1.03 1.03 0.92 0.78 0.77 0.80 0.76 0.72 0.74 0.87 0.98 1.11 1.15 1.08 1.06 1.18 1.36 1.49 1.57 1.74 1.78 1.86 1.91 2.05 2.13 2.27 2.63 2.63 2.66 2.66 2.48
1.19 1.33 1.46 1.44 1.44 1.17 1.01 1.06 1.10 1.17 1.14 1.14 1.02 0.91 0.93 0.89 0.83 0.86 0.94 0.92 0.82 0.78 0.89 0.98 1.14 1.23 1.24 1.30 1.43 1.62 1.68 1.76 1.84 1.98 2.10 2.16 2.23 2.39 2.48 2.64 2.70 2.75 2.73 2.58
1.16 1.06 1.43 1.59 1.47 1.33 1.19 1.09 1.13 1.29 1.23 1.11 0.97 0.92 0.94 0.94 0.87 0.84 0.86 0.90 0.88 0.85 0.94 1.06 1.18 1.39 1.51 1.58 1.71 1.85 1.96 2.05 2.16 2.29 2.37 2.40 2.43 2.45 2.50 2.67 2.70 2.72 2.68 2.55
1.13 1.11 1.45 1.73 1.65 1.63 1.44 1.14 1.06 1.09 1.06 0.97 0.98 0.96 0.95 1.00 0.94 0.86 0.83 0.84 0.91 1.03 1.13 1.22 1.39 1.56 1.61 1.72 1.81 1.93 2.13 2.32 2.40 2.41 2.41 2.38 2.39 2.50 2.59 2.58 2.57 2.63 2.67 2.67
1.33 1.32 1.63 1.95 1.73 1.71 1.62 1.32 1.14 1.02 0.95 0.95 1.08 1.11 1.01 1.02 1.05 1.00 1.00 1.01 1.05 1.14 1.27 1.40 1.53 1.68 1.77 1.92 2.04 2.14 2.30 2.51 2.68 2.62 2.54 2.54 2.58 2.61 2.59 2.56 2.50 2.54 2.47 2.43

GEFSCGP_prec_meanprecacc_342.txt.gz
Total_Precipitation_Accumulation
0.01 0.03 0.07 0.11 0.13 0.16 0.18 0.21 0.24 0.25 0.26 0.33 0.47 0.68 0.90 1.01 1.22 1.34 1.33 1.45 1.84 2.23 2.52 2.79 2.94 3.17 3.50 3.83 4.13 4.46 4.96 5.30 5.22 5.28 5.17 5.00 4.67 4.44 4.01 3.54 3.17 3.13 3.15 3.41
0.02 0.05 0.06 0.07 0.07 0.11 0.15 0.17 0.21 0.25 0.28 0.35 0.41 0.64 0.87 0.90 1.11 1.25 1.35 1.51 1.65 1.85 2.31 2.58 2.60 2.84 3.10 3.64 4.17 4.53 4.57 4.59 4.51 4.76 5.13 5.33 5.26 4.71 4.05 3.66 3.52 3.14 3.09 3.27
0.04 0.06 0.05 0.04 0.04 0.07 0.15 0.18 0.22 0.25 0.30 0.41 0.52 0.97 1.10 1.01 1.08 1.14 1.23 1.41 1.53 1.69 1.87 2.18 2.21 2.32 2.55 3.07 3.61 3.78 3.68 3.66 3.59 3.75 4.13 4.43 4.74 4.49 4.17 3.86 3.60 3.18 3.05 3.09
0.04 0.04 0.04 0.04 0.04 0.06 0.12 0.12 0.15 0.21 0.35 0.58 0.62 1.15 1.39 1.38 1.39 1.20 1.23 1.29 1.55 1.69 1.72 1.88 1.94 2.00 2.07 2.22 2.47 2.68 2.91 3.06 3.10 3.15 3.36 3.59 3.90 3.97 3.97 3.91 3.56 3.18 2.88 2.86
0.04 0.03 0.04 0.07 0.06 0.05 0.08 0.09 0.12 0.19 0.33 0.60 0.61 0.86 1.42 1.61 1.62 1.34 1.25 1.24 1.40 1.41 1.48 1.62 1.73 1.76 1.81 1.96 2.21 2.43 2.75 2.93 3.01 2.97 3.05 3.27 3.61 3.68 3.51 3.39 3.46 3.23 2.94 2.67
0.07 0.05 0.06 0.07 0.06 0.05 0.07 0.10 0.17 0.26 0.42 0.87 0.72 0.82 1.31 1.50 1.37 1.33 1.18 1.10 1.18 1.13 1.28 1.49 1.59 1.67 1.75 1.84 2.06 2.30 2.55 2.57 2.68 2.74 2.75 2.80 3.03 3.20 3.07 2.94 2.95 2.80 2.68 2.57
0.16 0.14 0.10 0.08 0.08 0.07 0.10 0.18 0.61 1.04 1.24 1.18 0.74 0.87 1.38 1.24 1.11 1.11 1.12 1.18 1.19 1.12 1.13 1.29 1.47 1.51 1.66 1.78 1.91 2.05 2.19 2.31 2.34 2.39 2.34 2.29 2.38 2.54 2.55 2.46 2.51 2.42 2.21 2.12
0.25 0.27 0.18 0.10 0.09 0.12 0.16 0.27 0.77 1.10 1.10 1.07 0.90 1.31 1.51 1.10 1.04 1.03 0.96 0.94 0.92 0.88 0.85 0.97 1.16 1.29 1.43 1.59 1.67 1.80 1.93 2.09 2.19 2.23 2.25 2.22 2.18 2.24 2.33 2.43 2.28 2.23 1.97 1.83
0.19 0.20 0.14 0.10 0.09 0.13 0.25 0.32 0.38 0.61 0.75 1.11 1.33 1.57 1.41 1.12 1.13 1.04 1.01 0.92 0.92 0.91 0.89 0.90 1.02 1.13 1.17 1.28 1.41 1.53 1.68 1.87 2.07 2.06 2.20 2.17 2.01 2.08 2.25 2.36 2.27 2.15 2.13 2.00
0.10 0.13 0.14 0.10 0.13 0.17 0.20 0.26 0.35 0.53 0.83 1.16 1.34 1.75 1.96 1.65 1.44 1.17 1.18 1.09 1.02 0.93 0.83 0.85 0.89 0.91 0.90 1.05 1.37 1.50 1.66 1.84 1.94 1.91 1.82 1.72 1.77 1.93 2.08 2.08 2.00 2.13 2.20 2.22
0.09 0.11 0.15 0.16 0.16 0.19 0.22 0.26 0.35 0.45 0.58 0.93 1.38 1.60 1.39 1.39 1.34 1.30 1.18 1.11 1.04 0.95 0.85 0.87 0.95 0.95 0.94 1.06 1.32 1.33 1.40 1.62 1.74 1.72 1.58 1.53 1.60 1.69 1.76 1.79 1.78 1.93 2.02 2.10
0.11 0.13 0.20 0.24 0.19 0.17 0.20 0.24 0.35 0.54 0.60 0.75 1.12 1.37 0.95 1.04 1.08 0.97 0.90 0.90 0.82 0.81 0.80 0.82 0.88 1.01 1.14 1.27 1.24 1.13 1.17 1.25 1.38 1.42 1.40 1.43 1.46 1.44 1.42 1.47 1.58 1.69 1.75 1.79
0.14 0.19 0.34 0.54 0.53 0.32 0.26 0.23 0.28 0.37 0.47 0.60 0.93 1.26 1.01 0.98 1.08 1.01 0.94 0.92 0.85 0.81 0.83 0.85 0.90 0.95 0.99 1.15 1.29 1.12 1.08 1.16 1.27 1.34 1.40 1.50 1.53 1.45 1.40 1.45 1.50 1.50 1.45 1.47
0.13 0.16 0.30 0.56 0.49 0.37 0.33 0.29 0.31 0.38 0.49 0.55 0.68 0.98 1.09 1.08 1.06 1.03 1.01 0.92 0.92 0.89 0.75 0.78 0.91 1.06 1.08 1.07 1.15 1.06 1.03 1.11 1.24 1.48 1.71 1.74 1.68 1.61 1.53 1.44 1.43 1.42 1.35 1.43
0.14 0.14 0.16 0.21 0.27 0.35 0.39 0.31 0.29 0.33 0.40 0.56 0.56 0.72 0.97 1.05 0.98 1.04 1.09 0.90 0.80 0.87 0.83 0.74 0.84 1.03 1.14 1.17 1.17 1.11 1.14 1.20 1.35 1.61 1.77 1.86 1.89 1.81 1.73 1.59 1.47 1.43 1.44 1.41
0.21 0.20 0.21 0.23 0.31 0.38 0.41 0.33 0.26 0.26 0.29 0.35 0.46 0.69 0.79 0.75 0.82 0.90 0.91 0.90 0.92 0.98 0.93 0.84 0.84 0.90 1.07 1.16 1.23 1.26 1.34 1.41 1.47 1.51 1.56 1.70 1.81 1.82 1.75 1.56 1.48 1.51 1.51 1.48
0.36 0.36 0.34 0.37 0.37 0.46 0.51 0.39 0.36 0.31 0.28 0.38 0.61 0.83 0.79 0.77 0.85 0.82 0.84 0.82 0.95 0.99 0.88 0.83 0.86 0.91 0.97 1.01 1.11 1.37 1.40 1.38 1.40 1.47 1.56 1.71 1.75 1.72 1.65 1.50 1.48 1.52 1.51 1.55
0.34 0.44 0.46 0.50 0.65 0.78 0.55 0.36 0.37 0.37 0.40 0.49 0.61 0.69 0.70 0.69 0.77 0.79 0.76 0.75 0.73 0.78 0.75 0.76 0.84 0.92 0.94 0.92 0.93 1.06 1.22 1.33 1.40 1.44 1.52 1.61 1.64 1.70 1.74 1.68 1.59 1.64 1.67 1.60
0.33 0.47 0.54 0.63 0.82 0.69 0.48 0.42 0.45 0.52 0.60 0.62 0.68 0.71 0.71 0.72 0.85 0.95 0.79 0.70 0.66 0.66 0.71 0.83 0.94 0.92 0.91 0.91 0.93 1.04 1.18 1.32 1.47 1.53 1.56 1.57 1.66 1.81 1.83 1.72 1.69 1.75 1.73 1.61
0.38 0.48 0.67 0.76 0.96 0.90 0.69 0.53 0.47 0.61 1.03 0.77 0.72 0.76 0.78 0.83 1.06 1.16 0.88 0.77 0.76 0.78 0.82 0.79 0.78 0.78 0.83 0.95 1.03 1.10 1.27 1.49 1.59 1.60 1.68 1.75 1.80 1.92 2.02 2.04 1.98 1.90 1.87 1.79
0.82 0.79 0.77 0.89 1.03 0.88 0.65 0.54 0.62 1.07 1.33 0.96 0.89 0.87 0.88 0.99 0.96 0.93 0.85 0.77 0.78 0.82 0.87 0.87 0.90 0.91 0.95 0.99 1.16 1.37 1.48 1.57 1.64 1.69 1.75 1.94 2.03 2.13 2.29 2.46 2.36 2.28 2.20 2.17
1.10 1.17 1.13 1.15 1.31 1.29 0.79 0.67 0.99 1.25 1.06 1.07 1.09 1.04 1.04 0.93 0.78 0.78 0.81 0.77 0.73 0.75 0.89 1.00 1.12 1.16 1.09 1.07 1.19 1.38 1.51 1.60 1.77 1.81 1.90 1.96 2.09 2.18 2.34 2.70 2.70 2.72 2.70 2.52
1.20 1.34 1.47 1.45 1.45 1.18 1.02 1.07 1.11 1.19 1.15 1.15 1.03 0.91 0.93 0.90 0.84 0.87 0.95 0.93 0.83 0.80 0.91 0.99 1.15 1.24 1.26 1.33 1.46 1.65 1.72 1.80 1.88 2.02 2.15 2.22 2.30 2.47 2.58 2.73 2.78 2.83 2.79 2.64
1.17 1.07 1.43 1.60 1.47 1.33 1.20 1.10 1.14 1.30 1.24 1.11 0.98 0.93 0.94 0.95 0.89 0.86 0.87 0.91 0.89 0.86 0.95 1.07 1.19 1.40 1.53 1.61 1.74 1.89 2.00 2.10 2.21 2.34 2.43 2.47 2.51 2.54 2.60 2.77 2.78 2.78 2.73 2.60
1.13 1.11 1.45 1.74 1.66 1.63 1.44 1.15 1.06 1.09 1.06 0.97 0.99 0.97 0.96 1.01 0.96 0.88 0.84 0.85 0.92 1.04 1.14 1.23 1.40 1.58 1.63 1.75 1.85 1.97 2.18 2.37 2.45 2.47 2.47 2.45 2.46 2.57 2.65 2.65 2.64 2.69 2.72 2.71
1.33 1.33 1.64 1.96 1.73 1.71 1.62 1.33 1.15 1.03 0.96 0.95 1.09 1.11 1.02 1.03 1.06 1.01 1.01 1.02 1.06 1.15 1.28 1.41 1.55 1.71 1.80 1.94 2.06 2.16 2.33 2.54 2.71 2.65 2.58 2.58 2.62 2.65 2.63 2.60 2.56 2.59 2.51 2.46

GEFSCGP_prec_meanprecacc_348.txt.gz
Total_Precipitation_Accumulation
0.02 0.04 0.08 0.11 0.13 0.17 0.18 0.22 0.24 0.25 0.26 0.33 0.47 0.68 0.90 1.01 1.22 1.34 1.34 1.46 1.84 2.23 2.52 2.80 2.95 3.17 3.51 3.85 4.16 4.48 5.00 5.35 5.28 5.37 5.29 5.12 4.75 4.50 4.04 3.56 3.19 3.15 3.18 3.45
0.03 0.06 0.06 0.07 0.07 0.11 0.15 0.18 0.22 0.25 0.28 0.35 0.41 0.64 0.87 0.90 1.11 1.25 1.35 1.52 1.66 1.86 2.32 2.59 2.61 2.86 3.11 3.65 4.18 4.55 4.62 4.64 4.56 4.82 5.21 5.41 5.33 4.77 4.10 3.69 3.54 3.16 3.11 3.30
0.04 0.07 0.05 0.04 0.04 0.07 0.15 0.18 0.22 0.25 0.30 0.42 0.52 0.97 1.10 1.02 1.08 1.14 1.23 1.42 1.54 1.70 1.88 2.19 2.23 2.33 2.56 3.08 3.63 3.81 3.72 3.70 3.63 3.79 4.19 4.51 4.81 4.57 4.23 3.91 3.63 3.20 3.07 3.11
0.04 0.04 0.04 0.04 0.04 0.06 0.12 0.12 0.15 0.21 0.35 0.59 0.63 1.18 1.41 1.43 1.40 1.20 1.24 1.31 1.56 1.69 1.73 1.89 1.98 2.03 2.08 2.23 2.48 2.70 2.95 3.11 3.14 3.18 3.41 3.66 3.97 4.04 4.02 3.96 3.61 3.20 2.90 2.89
0.04 0.03 0.04 0.07 0.07 0.05 0.09 0.09 0.12 0.19 0.33 0.61 0.64 0.90 1.45 1.63 1.63 1.35 1.26 1.24 1.40 1.41 1.48 1.64 1.76 1.80 1.83 1.97 2.22 2.44 2.77 2.98 3.07 3.03 3.09 3.32 3.67 3.73 3.55 3.43 3.51 3.27 2.97 2.70
0.07 0.05 0.07 0.07 0.06 0.05 0.07 0.10 0.17 0.26 0.42 0.88 0.74 0.83 1.34 1.53 1.42 1.35 1.18 1.10 1.18 1.13 1.28 1.50 1.60 1.68 1.77 1.86 2.09 2.32 2.57 2.61 2.73 2.79 2.79 2.85 3.07 3.25 3.12 3.01 3.02 2.86 2.72 2.61
0.16 0.14 0.10 0.08 0.08 0.08 0.10 0.19 0.62 1.05 1.25 1.19 0.76 0.89 1.41 1.27 1.12 1.12 1.13 1.20 1.19 1.12 1.13 1.29 1.47 1.51 1.67 1.79 1.93 2.07 2.22 2.34 2.38 2.43 2.37 2.32 2.43 2.59 2.62 2.54 2.58 2.49 2.25 2.16
0.26 0.28 0.18 0.10 0.10 0.12 0.16 0.27 0.79 1.12 1.12 1.08 0.92 1.33 1.52 1.11 1.04 1.03 0.96 0.94 0.93 0.89 0.86 0.97 1.16 1.29 1.43 1.59 1.68 1.81 1.96 2.13 2.22 2.25 2.27 2.24 2.21 2.28 2.39 2.51 2.34 2.29 2.03 1.88
0.19 0.20 0.14 0.10 0.09 0.13 0.25 0.32 0.38 0.62 0.76 1.12 1.34 1.58 1.42 1.13 1.13 1.04 1.01 0.92 0.92 0.91 0.89 0.90 1.03 1.13 1.17 1.28 1.41 1.54 1.69 1.89 2.09 2.08 2.23 2.20 2.04 2.12 2.31 2.43 2.32 2.21 2.18 2.05
0.10 0.14 0.15 0.11 0.13 0.17 0.20 0.26 0.35 0.54 0.84 1.17 1.36 1.77 1.97 1.65 1.44 1.18 1.19 1.09 1.02 0.93 0.83 0.85 0.90 0.92 0.91 1.05 1.38 1.51 1.67 1.85 1.96 1.92 1.85 1.75 1.81 1.97 2.13 2.13 2.06 2.19 2.27 2.27
0.09 0.12 0.16 0.18 0.17 0.19 0.22 0.27 0.35 0.46 0.58 0.94 1.41 1.63 1.41 1.41 1.36 1.31 1.18 1.11 1.05 0.96 0.85 0.88 0.96 0.95 0.94 1.07 1.32 1.34 1.41 1.63 1.74 1.73 1.59 1.57 1.64 1.72 1.80 1.83 1.81 1.97 2.06 2.15
0.11 0.13 0.21 0.25 0.21 0.18 0.20 0.24 0.36 0.55 0.60 0.75 1.13 1.41 0.97 1.07 1.10 0.97 0.91 0.90 0.82 0.82 0.81 0.83 0.89 1.02 1.16 1.28 1.25 1.14 1.18 1.25 1.39 1.43 1.41 1.45 1.49 1.46 1.44 1.50 1.60 1.72 1.79 1.83
0.14 0.19 0.35 0.55 0.54 0.33 0.27 0.24 0.29 0.37 0.48 0.60 0.95 1.31 1.03 0.99 1.10 1.02 0.94 0.92 0.85 0.81 0.84 0.87 0.92 0.97 1.01 1.17 1.32 1.15 1.10 1.17 1.28 1.36 1.42 1.52 1.56 1.48 1.43 1.48 1.53 1.53 1.49 1.51
0.13 0.16 0.31 0.57 0.51 0.38 0.33 0.30 0.32 0.38 0.50 0.56 0.69 1.00 1.10 1.09 1.07 1.07 1.03 0.92 0.92 0.90 0.76 0.79 0.93 1.09 1.10 1.10 1.19 1.09 1.07 1.13 1.26 1.50 1.73 1.77 1.72 1.65 1.58 1.49 1.48 1.47 1.40 1.48
0.14 0.14 0.16 0.21 0.27 0.36 0.39 0.31 0.30 0.34 0.41 0.56 0.56 0.73 0.98 1.06 0.99 1.06 1.13 0.91 0.82 0.88 0.84 0.75 0.85 1.05 1.16 1.19 1.19 1.13 1.16 1.22 1.37 1.64 1.81 1.89 1.93 1.86 1.78 1.65 1.54 1.50 1.50 1.46
0.21 0.21 0.21 0.23 0.31 0.38 0.41 0.33 0.26 0.26 0.29 0.35 0.46 0.69 0.81 0.78 0.85 0.92 0.93 0.91 0.94 1.00 0.94 0.86 0.85 0.92 1.08 1.17 1.24 1.27 1.36 1.43 1.50 1.53 1.59 1.73 1.84 1.86 1.81 1.62 1.53 1.57 1.56 1.52
0.36 0.36 0.35 0.37 0.37 0.46 0.51 0.40 0.36 0.31 0.28 0.39 0.61 0.84 0.81 0.82 0.89 0.85 0.85 0.83 0.96 1.01 0.89 0.85 0.87 0.92 0.98 1.02 1.12 1.39 1.43 1.41 1.43 1.50 1.58 1.74 1.77 1.75 1.70 1.54 1.53 1.56 1.56 1.59
0.34 0.44 0.47 0.50 0.65 0.79 0.55 0.37 0.37 0.37 0.40 0.49 0.62 0.69 0.71 0.72 0.79 0.81 0.78 0.77 0.74 0.79 0.76 0.77 0.84 0.93 0.95 0.93 0.95 1.08 1.24 1.37 1.43 1.47 1.54 1.63 1.66 1.72 1.78 1.71 1.63 1.69 1.72 1.64
0.33 0.48 0.55 0.64 0.83 0.70 0.49 0.43 0.46 0.54 0.62 0.63 0.68 0.72 0.71 0.72 0.85 0.96 0.80 0.72 0.68 0.68 0.73 0.84 0.96 0.94 0.93 0.93 0.95 1.07 1.22 1.36 1.50 1.55 1.58 1.59 1.68 1.83 1.86 1.77 1.75 1.80 1.78 1.65
0.39 0.49 0.69 0.77 0.97 0.91 0.71 0.54 0.48 0.62 1.05 0.78 0.73 0.77 0.79 0.83 1.08 1.18 0.88 0.78 0.77 0.81 0.85 0.82 0.81 0.81 0.85 0.95 1.05 1.12 1.29 1.51 1.61 1.62 1.70 1.77 1.82 1.95 2.08 2.11 2.04 1.96 1.93 1.84
0.83 0.81 0.79 0.91 1.05 0.90 0.66 0.55 0.63 1.09 1.35 0.97 0.91 0.90 0.89 0.99 0.98 0.95 0.87 0.78 0.79 0.83 0.89 0.90 0.92 0.93 0.97 1.00 1.16 1.37 1.49 1.58 1.65 1.71 1.78 1.98 2.07 2.19 2.33 2.52 2.42 2.35 2.26 2.23
1.10 1.18 1.14 1.16 1.33 1.32 0.80 0.67 1.01 1.27 1.06 1.08 1.11 1.05 1.05 0.94 0.80 0.80 0.85 0.80 0.75 0.77 0.90 1.01 1.14 1.17 1.10 1.08 1.20 1.40 1.53 1.62 1.80 1.86 1.94 2.01 2.15 2.22 2.38 2.76 2.76 2.78 2.78 2.59
1.21 1.36 1.49 1.46 1.47 1.19 1.02 1.07 1.12 1.19 1.15 1.16 1.04 0.92 0.94 0.91 0.86 0.89 0.98 0.98 0.88 0.84 0.94 1.01 1.16 1.25 1.27 1.33 1.47 1.67 1.74 1.83 1.93 2.07 2.20 2.27 2.35 2.53 2.64 2.79 2.84 2.87 2.84 2.69
1.19 1.09 1.45 1.62 1.49 1.34 1.21 1.10 1.14 1.30 1.24 1.11 0.98 0.93 0.95 0.95 0.89 0.86 0.88 0.93 0.91 0.88 0.97 1.09 1.20 1.42 1.55 1.62 1.76 1.92 2.03 2.13 2.25 2.38 2.47 2.51 2.56 2.59 2.65 2.81 2.83 2.83 2.79 2.65
1.15 1.15 1.49 1.78 1.68 1.64 1.45 1.15 1.07 1.10 1.06 0.98 0.99 0.97 0.96 1.01 0.96 0.89 0.86 0.86 0.94 1.06 1.16 1.25 1.42 1.62 1.67 1.77 1.87 1.99 2.21 2.40 2.49 2.50 2.50 2.48 2.50 2.61 2.70 2.70 2.69 2.74 2.76 2.76
1.34 1.36 1.69 2.00 1.76 1.72 1.63 1.33 1.15 1.03 0.97 0.96 1.09 1.12 1.02 1.03 1.07 1.02 1.02 1.03 1.07 1.16 1.30 1.43 1.58 1.74 1.83 1.97 2.09 2.19 2.37 2.58 2.75 2.69 2.60 2.60 2.64 2.68 2.66 2.63 2.59 2.63 2.54 2.50

GEFSCGP_prec_meanprecacc_354.txt.gz
Total_Precipitation_Accumulation
0.02 0.05 0.09 0.12 0.14 0.18 0.19 0.23 0.26 0.26 0.27 0.34 0.48 0.69 0.91 1.03 1.24 1.37 1.38 1.50 1.87 2.26 2.55 2.83 2.97 3.22 3.56 3.88 4.19 4.52 5.03 5.37 5.30 5.39 5.31 5.16 4.80 4.54 4.07 3.59 3.22 3.18 3.21 3.47
0.03 0.06 0.06 0.07 0.07 0.11 0.16 0.20 0.23 0.25 0.28 0.36 0.42 0.65 0.89 0.93 1.13 1.28 1.41 1.58 1.69 1.89 2.35 2.62 2.65 2.94 3.16 3.69 4.22 4.58 4.63 4.66 4.57 4.84 5.24 5.44 5.37 4.82 4.15 3.74 3.58 3.19 3.14 3.34
0.05 0.07 0.05 0.04 0.05 0.08 0.17 0.20 0.23 0.26 0.30 0.42 0.52 0.98 1.12 1.05 1.11 1.17 1.27 1.49 1.58 1.73 1.91 2.24 2.31 2.41 2.62 3.15 3.71 3.86 3.77 3.74 3.65 3.80 4.22 4.53 4.84 4.61 4.28 3.95 3.67 3.23 3.11 3.15
0.04 0.05 0.04 0.04 0.04 0.06 0.13 0.12 0.16 0.22 0.36 0.60 0.65 1.23 1.45 1.47 1.45 1.26 1.30 1.36 1.60 1.73 1.75 1.92 2.03 2.14 2.17 2.38 2.64 2.79 3.00 3.14 3.17 3.20 3.43 3.69 3.99 4.06 4.05 4.00 3.65 3.24 2.95 2.93
0.05 0.04 0.04 0.07 0.07 0.06 0.09 0.10 0.12 0.19 0.34 0.62 0.67 0.95 1.49 1.68 1.69 1.40 1.30 1.30 1.46 1.46 1.51 1.66 1.79 1.87 1.95 2.14 2.38 2.51 2.82 3.02 3.10 3.05 3.11 3.33 3.68 3.74 3.57 3.46 3.56 3.32 3.03 2.77
0.07 0.06 0.07 0.07 0.07 0.06 0.08 0.10 0.17 0.26 0.42 0.90 0.77 0.86 1.38 1.60 1.49 1.47 1.30 1.18 1.24 1.18 1.31 1.53 1.63 1.70 1.82 1.93 2.14 2.38 2.65 2.67 2.76 2.82 2.82 2.87 3.09 3.27 3.14 3.03 3.05 2.94 2.82 2.70
0.16 0.14 0.11 0.08 0.08 0.08 0.10 0.19 0.62 1.06 1.26 1.23 0.78 0.91 1.44 1.32 1.19 1.23 1.29 1.31 1.25 1.16 1.17 1.31 1.48 1.53 1.69 1.81 1.94 2.10 2.26 2.40 2.41 2.45 2.39 2.35 2.45 2.63 2.66 2.57 2.61 2.54 2.33 2.24
0.26 0.29 0.19 0.11 0.10 0.12 0.16 0.27 0.79 1.14 1.14 1.10 0.94 1.36 1.56 1.18 1.10 1.10 1.04 1.01 0.97 0.92 0.90 1.00 1.18 1.31 1.44 1.60 1.69 1.82 1.97 2.15 2.25 2.27 2.28 2.26 2.23 2.31 2.43 2.55 2.38 2.33 2.07 1.93
0.19 0.21 0.14 0.11 0.09 0.13 0.26 0.33 0.38 0.63 0.78 1.14 1.37 1.62 1.45 1.16 1.17 1.09 1.06 0.95 0.95 0.94 0.92 0.92 1.04 1.15 1.18 1.29 1.41 1.54 1.69 1.90 2.10 2.09 2.24 2.22 2.07 2.16 2.34 2.46 2.36 2.24 2.21 2.08
0.10 0.15 0.16 0.11 0.13 0.17 0.21 0.26 0.36 0.55 0.87 1.20 1.40 1.82 2.02 1.69 1.50 1.24 1.26 1.14 1.05 0.96 0.87 0.88 0.92 0.93 0.92 1.07 1.39 1.52 1.67 1.85 1.96 1.93 1.85 1.76 1.83 2.00 2.16 2.16 2.09 2.22 2.30 2.30
0.09 0.12 0.17 0.19 0.18 0.20 0.22 0.27 0.36 0.49 0.61 0.96 1.45 1.67 1.45 1.44 1.39 1.34 1.24 1.18 1.11 1.04 0.91 0.93 1.01 0.99 0.97 1.09 1.34 1.35 1.41 1.64 1.75 1.74 1.61 1.58 1.65 1.74 1.82 1.85 1.83 1.99 2.08 2.17
0.11 0.13 0.21 0.26 0.22 0.19 0.21 0.25 0.36 0.59 0.64 0.77 1.17 1.46 1.00 1.11 1.16 1.03 1.00 1.04 0.96 0.94 0.90 0.91 0.94 1.05 1.19 1.31 1.27 1.16 1.20 1.27 1.40 1.44 1.42 1.46 1.50 1.48 1.46 1.52 1.62 1.74 1.81 1.85
0.14 0.19 0.35 0.56 0.55 0.34 0.27 0.24 0.29 0.38 0.50 0.62 0.97 1.34 1.05 1.02 1.13 1.08 1.02 1.05 0.99 0.92 0.91 0.95 1.01 1.03 1.05 1.21 1.36 1.18 1.13 1.20 1.30 1.37 1.44 1.54 1.58 1.51 1.46 1.51 1.57 1.57 1.53 1.55
0.13 0.16 0.31 0.57 0.51 0.39 0.33 0.30 0.33 0.39 0.50 0.57 0.70 1.02 1.12 1.11 1.09 1.10 1.11 1.02 1.02 0.97 0.81 0.83 1.00 1.16 1.15 1.15 1.22 1.12 1.09 1.16 1.29 1.52 1.75 1.79 1.75 1.69 1.62 1.54 1.54 1.53 1.46 1.55
0.14 0.14 0.16 0.21 0.27 0.36 0.40 0.31 0.31 0.34 0.41 0.57 0.58 0.75 1.01 1.08 1.02 1.09 1.22 1.05 0.92 0.95 0.91 0.81 0.91 1.10 1.20 1.22 1.22 1.15 1.18 1.23 1.38 1.66 1.83 1.91 1.95 1.89 1.81 1.70 1.60 1.57 1.58 1.55
0.21 0.21 0.21 0.24 0.32 0.39 0.41 0.33 0.27 0.27 0.30 0.36 0.48 0.72 0.84 0.80 0.87 0.97 1.00 0.98 0.99 1.05 1.00 0.91 0.89 0.94 1.10 1.19 1.25 1.28 1.37 1.44 1.51 1.55 1.61 1.75 1.87 1.89 1.83 1.65 1.57 1.63 1.65 1.65
0.36 0.36 0.35 0.37 0.38 0.46 0.52 0.40 0.36 0.32 0.29 0.40 0.64 0.87 0.84 0.85 0.94 0.90 0.91 0.88 1.01 1.05 0.92 0.87 0.89 0.92 0.99 1.03 1.13 1.40 1.44 1.43 1.47 1.55 1.63 1.77 1.80 1.78 1.72 1.57 1.57 1.63 1.66 1.72
0.34 0.44 0.47 0.50 0.66 0.80 0.56 0.37 0.38 0.38 0.42 0.51 0.64 0.72 0.74 0.75 0.85 0.86 0.80 0.80 0.79 0.85 0.79 0.79 0.85 0.93 0.95 0.94 0.96 1.10 1.29 1.41 1.47 1.52 1.58 1.68 1.72 1.78 1.82 1.74 1.67 1.74 1.79 1.73
0.33 0.48 0.55 0.64 0.83 0.71 0.50 0.44 0.47 0.54 0.63 0.65 0.71 0.74 0.76 0.77 0.92 1.04 0.84 0.74 0.72 0.73 0.77 0.87 0.99 0.96 0.95 0.95 0.98 1.10 1.25 1.39 1.54 1.60 1.64 1.65 1.75 1.89 1.91 1.82 1.82 1.88 1.86 1.72
0.39 0.49 0.69 0.78 0.98 0.93 0.73 0.55 0.49 0.62 1.06 0.80 0.75 0.79 0.83 0.89 1.13 1.22 0.92 0.80 0.79 0.83 0.88 0.84 0.84 0.85 0.90 1.00 1.09 1.16 1.33 1.54 1.64 1.66 1.74 1.82 1.87 2.01 2.16 2.21 2.17 2.07 2.02 1.94
0.83 0.81 0.79 0.92 1.06 0.91 0.67 0.56 0.64 1.10 1.37 1.00 0.93 0.95 0.95 1.03 1.02 0.97 0.89 0.80 0.82 0.87 0.93 0.94 0.98 0.98 1.01 1.05 1.21 1.43 1.55 1.63 1.69 1.75 1.81 2.01 2.11 2.23 2.40 2.60 2.51 2.43 2.34 2.31
1.11 1.19 1.15 1.18 1.36 1.35 0.82 0.69 1.02 1.29 1.09 1.10 1.13 1.09 1.09 0.97 0.82 0.81 0.86 0.83 0.81 0.82 0.96 1.06 1.19 1.24 1.16 1.13 1.25 1.46 1.60 1.68 1.84 1.88 1.96 2.03 2.17 2.25 2.43 2.82 2.82 2.85 2.86 2.67
1.23 1.37 1.50 1.48 1.49 1.20 1.03 1.08 1.13 1.22 1.20 1.20 1.06 0.93 0.95 0.92 0.87 0.92 1.01 1.00 0.92 0.92 1.03 1.08 1.22 1.31 1.33 1.41 1.56 1.73 1.79 1.87 1.95 2.08 2.21 2.28 2.37 2.56 2.70 2.86 2.91 2.95 2.90 2.75
1.20 1.09 1.46 1.63 1.50 1.35 1.22 1.12 1.16 1.32 1.26 1.13 1.00 0.95 0.96 0.96 0.90 0.87 0.90 0.97 0.95 0.94 1.05 1.16 1.27 1.48 1.62 1.69 1.81 1.96 2.06 2.16 2.28 2.40 2.48 2.51 2.57 2.61 2.69 2.86 2.88 2.87 2.82 2.68
1.16 1.16 1.50 1.79 1.70 1.66 1.47 1.18 1.08 1.11 1.08 0.99 1.00 0.98 0.97 1.02 0.97 0.89 0.87 0.90 0.97 1.10 1.19 1.28 1.46 1.65 1.71 1.82 1.92 2.04 2.24 2.43 2.50 2.52 2.51 2.48 2.50 2.62 2.71 2.72 2.71 2.76 2.79 2.78
1.34 1.37 1.71 2.04 1.80 1.76 1.66 1.35 1.16 1.04 0.97 0.96 1.10 1.13 1.03 1.04 1.08 1.03 1.03 1.04 1.09 1.18 1.32 1.45 1.60 1.77 1.87 2.00 2.12 2.23 2.41 2.62 2.78 2.71 2.62 2.61 2.65 2.69 2.67 2.64 2.61 2.66 2.58 2.54